Wetterdaten: Dienstag, 04.12.2018
Datum Zeit Temp. Aussen Temp. o. S. +5cm Feuchte Auss Luftdruck Regen Sonnenschein Regendauer Solar Windben Empfang
04.12.2018 00:00 10,6 C 9,4 C 8,9 C 96 % 1002,8 hPa 0,0 l/m 0 min 0 min 0 W/m 16,1 km/h (3 Bft) 95,74 %
04.12.2018 00:02 10,6 C 9,4 C 8,9 C 96 % 1002,9 hPa 0,0 l/m 0 min 0 min 0 W/m 22,5 km/h (4 Bft) 16,67 %
04.12.2018 00:04 10,6 C 9,4 C 8,9 C 96 % 1003,0 hPa 0,2 l/m 0 min 0 min 0 W/m 16,1 km/h (3 Bft) 77,08 %
04.12.2018 00:08 10,6 C 9,4 C 8,9 C 96 % 1003,2 hPa 0,0 l/m 0 min 0 min 0 W/m 19,3 km/h (3 Bft) 98,94 %
04.12.2018 00:10 10,6 C 9,4 C 8,9 C 96 % 1003,1 hPa 0,0 l/m 0 min 0 min 0 W/m 16,1 km/h (3 Bft) 100,00 %
04.12.2018 00:12 10,5 C 9,4 C 8,9 C 96 % 1003,1 hPa 0,0 l/m 0 min 0 min 0 W/m 29,0 km/h (5 Bft) 97,87 %
04.12.2018 00:14 10,5 C 9,4 C 8,9 C 96 % 1003,2 hPa 0,0 l/m 0 min 0 min 0 W/m 19,3 km/h (3 Bft) 97,87 %
04.12.2018 00:16 10,4 C 9,4 C 8,9 C 96 % 1003,3 hPa 0,0 l/m 0 min 0 min 0 W/m 32,2 km/h (5 Bft) 97,56 %
04.12.2018 00:18 10,4 C 9,4 C 8,9 C 96 % 1003,4 hPa 0,0 l/m 0 min 0 min 0 W/m 29,0 km/h (5 Bft) 97,87 %
04.12.2018 00:20 10,3 C 8,9 C 8,9 C 96 % 1003,4 hPa 0,0 l/m 0 min 0 min 0 W/m 29,0 km/h (5 Bft) 97,96 %
04.12.2018 00:22 10,3 C 8,9 C 8,9 C 96 % 1003,6 hPa 0,0 l/m 0 min 0 min 0 W/m 35,4 km/h (5 Bft) 95,74 %
04.12.2018 00:24 10,2 C 8,9 C 8,9 C 96 % 1003,6 hPa 0,0 l/m 0 min 0 min 0 W/m 25,7 km/h (4 Bft) 98,00 %
04.12.2018 00:26 10,2 C 8,9 C 8,3 C 96 % 1003,8 hPa 0,0 l/m 0 min 0 min 0 W/m 32,2 km/h (5 Bft) 91,30 %
04.12.2018 00:28 10,1 C 8,9 C 8,3 C 96 % 1003,9 hPa 0,0 l/m 0 min 0 min 0 W/m 32,2 km/h (5 Bft) 95,74 %
04.12.2018 00:30 10,0 C 8,9 C 8,3 C 96 % 1004,0 hPa 0,0 l/m 0 min 0 min 0 W/m 19,3 km/h (3 Bft) 95,74 %
04.12.2018 00:32 9,9 C 8,9 C 8,3 C 96 % 1004,1 hPa 0,0 l/m 0 min 0 min 0 W/m 38,6 km/h (5 Bft) 93,62 %
04.12.2018 00:34 9,9 C 8,3 C 8,3 C 96 % 1004,2 hPa 0,0 l/m 0 min 0 min 0 W/m 32,2 km/h (5 Bft) 95,12 %
04.12.2018 00:36 9,8 C 8,3 C 8,3 C 96 % 1004,3 hPa 0,0 l/m 0 min 0 min 0 W/m 22,5 km/h (4 Bft) 96,00 %
04.12.2018 00:38 9,8 C 8,3 C 8,3 C 96 % 1004,3 hPa 0,0 l/m 0 min 0 min 0 W/m 22,5 km/h (4 Bft) 95,74 %
04.12.2018 00:40 9,7 C 8,3 C 8,3 C 96 % 1004,5 hPa 0,0 l/m 0 min 0 min 0 W/m 25,7 km/h (4 Bft) 93,62 %
04.12.2018 00:42 9,7 C 8,3 C 8,3 C 96 % 1004,5 hPa 0,0 l/m 0 min 0 min 0 W/m 16,1 km/h (3 Bft) 95,92 %
04.12.2018 00:44 9,7 C 8,3 C 8,3 C 96 % 1004,6 hPa 0,0 l/m 0 min 0 min 0 W/m 22,5 km/h (4 Bft) 93,62 %
04.12.2018 00:46 9,6 C 8,3 C 7,8 C 96 % 1004,6 hPa 0,0 l/m 0 min 0 min 0 W/m 35,4 km/h (5 Bft) 95,74 %
04.12.2018 00:48 9,5 C 8,3 C 7,8 C 96 % 1004,8 hPa 0,0 l/m 0 min 0 min 0 W/m 22,5 km/h (4 Bft) 93,62 %
04.12.2018 00:50 9,4 C 8,3 C 7,8 C 96 % 1004,9 hPa 0,0 l/m 0 min 0 min 0 W/m 22,5 km/h (4 Bft) 95,65 %
04.12.2018 00:52 9,4 C 7,8 C 7,8 C 96 % 1004,9 hPa 0,0 l/m 0 min 0 min 0 W/m 22,5 km/h (4 Bft) 95,74 %
04.12.2018 00:54 9,3 C 7,8 C 7,8 C 96 % 1005,0 hPa 0,0 l/m 0 min 0 min 0 W/m 29,0 km/h (5 Bft) 95,24 %
04.12.2018 00:56 9,2 C 7,8 C 7,8 C 96 % 1005,2 hPa 0,0 l/m 0 min 0 min 0 W/m 38,6 km/h (5 Bft) 95,65 %
04.12.2018 00:58 9,1 C 7,8 C 7,8 C 96 % 1005,3 hPa 0,0 l/m 0 min 0 min 0 W/m 32,2 km/h (5 Bft) 95,74 %
04.12.2018 01:00 9,0 C 7,2 C 7,2 C 96 % 1005,4 hPa 0,0 l/m 0 min 0 min 0 W/m 22,5 km/h (4 Bft) 95,74 %
04.12.2018 01:02 8,9 C 7,2 C 7,2 C 96 % 1005,4 hPa 0,0 l/m 0 min 0 min 0 W/m 29,0 km/h (5 Bft) 95,74 %
04.12.2018 01:04 8,8 C 7,2 C 7,2 C 96 % 1005,4 hPa 0,0 l/m 0 min 0 min 0 W/m 29,0 km/h (5 Bft) 93,62 %
04.12.2018 01:06 8,7 C 7,2 C 7,2 C 96 % 1005,6 hPa 0,0 l/m 0 min 0 min 0 W/m 19,3 km/h (3 Bft) 96,55 %
04.12.2018 01:08 8,6 C 7,2 C 7,2 C 96 % 1005,6 hPa 0,0 l/m 0 min 0 min 0 W/m 19,3 km/h (3 Bft) 94,29 %
04.12.2018 01:10 8,6 C 7,2 C 7,2 C 96 % 1005,6 hPa 0,0 l/m 0 min 0 min 0 W/m 16,1 km/h (3 Bft) 97,87 %
04.12.2018 01:12 8,5 C 7,2 C 7,2 C 96 % 1005,7 hPa 0,0 l/m 0 min 0 min 0 W/m 22,5 km/h (4 Bft) 95,74 %
04.12.2018 01:14 8,5 C 7,2 C 7,2 C 96 % 1005,8 hPa 0,0 l/m 0 min 0 min 0 W/m 22,5 km/h (4 Bft) 98,00 %
04.12.2018 01:16 8,4 C 7,2 C 7,2 C 96 % 1005,8 hPa 0,0 l/m 0 min 0 min 0 W/m 12,9 km/h (3 Bft) 100,00 %
04.12.2018 01:18 8,5 C 7,2 C 7,2 C 96 % 1005,9 hPa 0,0 l/m 0 min 0 min 0 W/m 9,7 km/h (2 Bft) 95,74 %
04.12.2018 01:20 8,4 C 7,2 C 7,2 C 96 % 1005,8 hPa 0,0 l/m 0 min 0 min 0 W/m 19,3 km/h (3 Bft) 97,56 %
04.12.2018 01:22 8,4 C 7,2 C 7,2 C 96 % 1005,9 hPa 0,0 l/m 0 min 0 min 0 W/m 16,1 km/h (3 Bft) 100,00 %
04.12.2018 01:24 8,4 C 7,2 C 7,2 C 96 % 1006,0 hPa 0,0 l/m 0 min 0 min 0 W/m 19,3 km/h (3 Bft) 100,00 %
04.12.2018 01:26 8,3 C 7,2 C 6,7 C 95 % 1006,1 hPa 0,0 l/m 0 min 0 min 0 W/m 25,7 km/h (4 Bft) 98,00 %
04.12.2018 01:28 8,2 C 6,7 C 6,7 C 95 % 1006,1 hPa 0,0 l/m 0 min 0 min 0 W/m 12,9 km/h (3 Bft) 95,92 %
04.12.2018 01:30 8,2 C 6,7 C 6,7 C 95 % 1006,2 hPa 0,0 l/m 0 min 0 min 0 W/m 12,9 km/h (3 Bft) 100,00 %
04.12.2018 01:32 8,1 C 6,7 C 6,7 C 95 % 1006,2 hPa 0,0 l/m 0 min 0 min 0 W/m 19,3 km/h (3 Bft) 100,00 %
04.12.2018 01:34 8,1 C 6,7 C 6,7 C 95 % 1006,3 hPa 0,0 l/m 0 min 0 min 0 W/m 22,5 km/h (4 Bft) 100,00 %
04.12.2018 01:36 8,1 C 6,7 C 6,7 C 95 % 1006,5 hPa 0,0 l/m 0 min 0 min 0 W/m 16,1 km/h (3 Bft) 98,31 %
04.12.2018 01:38 8,1 C 6,7 C 6,7 C 95 % 1006,5 hPa 0,0 l/m 0 min 0 min 0 W/m 12,9 km/h (3 Bft) 100,00 %
04.12.2018 01:40 8,1 C 6,7 C 6,7 C 95 % 1006,5 hPa 0,0 l/m 0 min 0 min 0 W/m 19,3 km/h (3 Bft) 100,00 %
04.12.2018 01:42 8,0 C 6,7 C 6,7 C 95 % 1006,6 hPa 0,0 l/m 0 min 0 min 0 W/m 16,1 km/h (3 Bft) 100,00 %
04.12.2018 01:44 8,0 C 6,7 C 6,7 C 95 % 1006,6 hPa 0,0 l/m 0 min 0 min 0 W/m 12,9 km/h (3 Bft) 100,00 %
04.12.2018 01:46 7,9 C 6,7 C 6,7 C 95 % 1006,7 hPa 0,0 l/m 0 min 0 min 0 W/m 16,1 km/h (3 Bft) 97,87 %
04.12.2018 01:48 7,9 C 6,7 C 6,7 C 95 % 1006,7 hPa 0,0 l/m 0 min 0 min 0 W/m 19,3 km/h (3 Bft) 97,83 %
04.12.2018 01:50 7,9 C 6,7 C 6,7 C 95 % 1006,8 hPa 0,0 l/m 0 min 0 min 0 W/m 16,1 km/h (3 Bft) 97,62 %
04.12.2018 01:52 7,9 C 6,7 C 6,7 C 95 % 1006,8 hPa 0,0 l/m 0 min 0 min 0 W/m 22,5 km/h (4 Bft) 100,00 %
04.12.2018 01:54 7,8 C 6,7 C 6,7 C 95 % 1006,9 hPa 0,0 l/m 0 min 0 min 0 W/m 19,3 km/h (3 Bft) 97,83 %
04.12.2018 01:56 7,8 C 6,7 C 6,7 C 95 % 1007,0 hPa 0,0 l/m 0 min 0 min 0 W/m 9,7 km/h (2 Bft) 97,87 %
04.12.2018 01:58 7,8 C 6,7 C 6,7 C 95 % 1007,1 hPa 0,0 l/m 0 min 0 min 0 W/m 9,7 km/h (2 Bft) 97,87 %
04.12.2018 02:00 7,8 C 6,7 C 6,7 C 95 % 1007,2 hPa 0,0 l/m 0 min 0 min 0 W/m 6,4 km/h (2 Bft) 97,87 %
04.12.2018 02:02 7,8 C 6,7 C 6,7 C 95 % 1007,2 hPa 0,0 l/m 0 min 0 min 0 W/m 12,9 km/h (3 Bft) 100,00 %
04.12.2018 02:04 7,8 C 6,7 C 6,7 C 95 % 1007,3 hPa 0,0 l/m 0 min 0 min 0 W/m 12,9 km/h (3 Bft) 97,96 %
04.12.2018 02:06 7,8 C 6,7 C 6,7 C 95 % 1007,3 hPa 0,0 l/m 0 min 0 min 0 W/m 9,7 km/h (2 Bft) 97,87 %
04.12.2018 02:08 7,7 C 6,7 C 6,7 C 95 % 1007,4 hPa 0,0 l/m 0 min 0 min 0 W/m 6,4 km/h (2 Bft) 97,87 %
04.12.2018 02:10 7,7 C 6,7 C 6,7 C 95 % 1007,4 hPa 0,0 l/m 0 min 0 min 0 W/m 9,7 km/h (2 Bft) 97,87 %
04.12.2018 02:12 7,7 C 6,7 C 6,7 C 95 % 1007,4 hPa 0,0 l/m 0 min 0 min 0 W/m 12,9 km/h (3 Bft) 97,56 %
04.12.2018 02:14 7,7 C 6,7 C 6,7 C 95 % 1007,5 hPa 0,0 l/m 0 min 0 min 0 W/m 6,4 km/h (2 Bft) 98,00 %
04.12.2018 02:16 7,7 C 6,7 C 6,7 C 95 % 1007,6 hPa 0,0 l/m 0 min 0 min 0 W/m 9,7 km/h (2 Bft) 95,92 %
04.12.2018 02:18 7,7 C 6,7 C 6,7 C 95 % 1007,5 hPa 0,0 l/m 0 min 0 min 0 W/m 6,4 km/h (2 Bft) 97,87 %
04.12.2018 02:20 7,7 C 6,7 C 6,7 C 95 % 1007,6 hPa 0,0 l/m 0 min 0 min 0 W/m 9,7 km/h (2 Bft) 97,56 %
04.12.2018 02:22 7,7 C 6,7 C 6,7 C 95 % 1007,6 hPa 0,0 l/m 0 min 0 min 0 W/m 12,9 km/h (3 Bft) 97,87 %
04.12.2018 02:24 7,7 C 6,7 C 6,7 C 95 % 1007,7 hPa 0,0 l/m 0 min 0 min 0 W/m 9,7 km/h (2 Bft) 97,87 %
04.12.2018 02:26 7,6 C 6,7 C 6,7 C 95 % 1007,8 hPa 0,0 l/m 0 min 0 min 0 W/m 12,9 km/h (3 Bft) 97,87 %
04.12.2018 02:28 7,6 C 6,7 C 6,1 C 95 % 1007,8 hPa 0,0 l/m 0 min 0 min 0 W/m 12,9 km/h (3 Bft) 97,87 %
04.12.2018 02:30 7,6 C 6,7 C 6,1 C 95 % 1007,8 hPa 0,0 l/m 0 min 0 min 0 W/m 9,7 km/h (2 Bft) 97,96 %
04.12.2018 02:32 7,6 C 6,7 C 6,1 C 95 % 1007,8 hPa 0,0 l/m 0 min 0 min 0 W/m 6,4 km/h (2 Bft) 98,00 %
04.12.2018 02:34 7,6 C 6,7 C 6,1 C 95 % 1007,9 hPa 0,0 l/m 0 min 0 min 0 W/m 9,7 km/h (2 Bft) 95,65 %
04.12.2018 02:36 7,6 C 6,1 C 6,1 C 95 % 1008,0 hPa 0,0 l/m 0 min 0 min 0 W/m 9,7 km/h (2 Bft) 97,87 %
04.12.2018 02:38 7,6 C 6,1 C 6,1 C 95 % 1007,9 hPa 0,0 l/m 0 min 0 min 0 W/m 9,7 km/h (2 Bft) 97,87 %
04.12.2018 02:40 7,5 C 6,1 C 6,1 C 95 % 1008,0 hPa 0,0 l/m 0 min 0 min 0 W/m 16,1 km/h (3 Bft) 97,87 %
04.12.2018 02:42 7,5 C 6,1 C 6,1 C 95 % 1008,1 hPa 0,0 l/m 0 min 0 min 0 W/m 9,7 km/h (2 Bft) 97,87 %
04.12.2018 02:44 7,5 C 6,1 C 6,1 C 95 % 1008,1 hPa 0,0 l/m 0 min 0 min 0 W/m 3,2 km/h (1 Bft) 97,87 %
04.12.2018 02:46 7,4 C 6,1 C 6,1 C 95 % 1008,1 hPa 0,0 l/m 0 min 0 min 0 W/m 9,7 km/h (2 Bft) 97,56 %
04.12.2018 02:48 7,4 C 6,1 C 6,1 C 95 % 1008,1 hPa 0,0 l/m 0 min 0 min 0 W/m 6,4 km/h (2 Bft) 100,00 %
04.12.2018 02:50 7,4 C 6,1 C 6,1 C 95 % 1008,2 hPa 0,0 l/m 0 min 0 min 0 W/m 6,4 km/h (2 Bft) 100,00 %
04.12.2018 02:52 7,4 C 6,1 C 6,1 C 95 % 1008,4 hPa 0,0 l/m 0 min 0 min 0 W/m 9,7 km/h (2 Bft) 95,65 %
04.12.2018 02:54 7,4 C 6,1 C 6,1 C 95 % 1008,4 hPa 0,0 l/m 0 min 0 min 0 W/m 6,4 km/h (2 Bft) 98,00 %
04.12.2018 02:56 7,4 C 6,1 C 6,1 C 95 % 1008,5 hPa 0,0 l/m 0 min 0 min 0 W/m 6,4 km/h (2 Bft) 97,87 %
04.12.2018 02:58 7,4 C 6,1 C 6,1 C 95 % 1008,4 hPa 0,0 l/m 0 min 0 min 0 W/m 6,4 km/h (2 Bft) 95,12 %
04.12.2018 03:00 7,4 C 6,1 C 6,1 C 95 % 1008,5 hPa 0,0 l/m 0 min 0 min 0 W/m 6,4 km/h (2 Bft) 100,00 %
04.12.2018 03:02 7,4 C 6,1 C 6,1 C 95 % 1008,7 hPa 0,0 l/m 0 min 0 min 0 W/m 6,4 km/h (2 Bft) 96,00 %
04.12.2018 03:04 7,4 C 6,1 C 6,1 C 95 % 1008,7 hPa 0,0 l/m 0 min 0 min 0 W/m 9,7 km/h (2 Bft) 100,00 %
04.12.2018 03:06 7,3 C 6,1 C 6,1 C 95 % 1008,8 hPa 0,0 l/m 0 min 0 min 0 W/m 9,7 km/h (2 Bft) 95,74 %
04.12.2018 03:08 7,3 C 6,1 C 6,1 C 95 % 1008,8 hPa 0,0 l/m 0 min 0 min 0 W/m 9,7 km/h (2 Bft) 95,74 %
04.12.2018 03:10 7,3 C 6,1 C 6,1 C 95 % 1008,8 hPa 0,0 l/m 0 min 0 min 0 W/m 6,4 km/h (2 Bft) 100,00 %
04.12.2018 03:12 7,3 C 6,1 C 6,1 C 95 % 1008,8 hPa 0,0 l/m 0 min 0 min 0 W/m 6,4 km/h (2 Bft) 95,24 %
04.12.2018 03:14 7,3 C 6,1 C 6,1 C 95 % 1008,9 hPa 0,0 l/m 0 min 0 min 0 W/m 9,7 km/h (2 Bft) 93,62 %
04.12.2018 03:16 7,3 C 6,1 C 6,1 C 95 % 1008,9 hPa 0,0 l/m 0 min 0 min 0 W/m 6,4 km/h (2 Bft) 95,92 %
04.12.2018 03:18 7,3 C 6,1 C 6,1 C 95 % 1008,9 hPa 0,0 l/m 0 min 0 min 0 W/m 12,9 km/h (3 Bft) 90,00 %
04.12.2018 03:20 7,3 C 6,7 C 6,1 C 95 % 1009,0 hPa 0,0 l/m 0 min 0 min 0 W/m 9,7 km/h (2 Bft) 91,49 %
04.12.2018 03:22 7,3 C 6,7 C 6,1 C 95 % 1009,0 hPa 0,0 l/m 0 min 0 min 0 W/m 6,4 km/h (2 Bft) 95,12 %
04.12.2018 03:24 7,3 C 6,7 C 6,1 C 95 % 1009,0 hPa 0,0 l/m 0 min 0 min 0 W/m 6,4 km/h (2 Bft) 93,62 %
04.12.2018 03:26 7,3 C 6,7 C 6,1 C 95 % 1009,0 hPa 0,0 l/m 0 min 0 min 0 W/m 6,4 km/h (2 Bft) 89,36 %
04.12.2018 03:28 7,3 C 6,7 C 6,1 C 95 % 1009,2 hPa 0,0 l/m 0 min 0 min 0 W/m 9,7 km/h (2 Bft) 91,11 %
04.12.2018 03:30 7,3 C 6,7 C 6,1 C 95 % 1009,1 hPa 0,0 l/m 0 min 0 min 0 W/m 6,4 km/h (2 Bft) 94,00 %
04.12.2018 03:32 7,4 C 6,7 C 6,1 C 95 % 1009,1 hPa 0,0 l/m 0 min 0 min 0 W/m 6,4 km/h (2 Bft) 92,00 %
04.12.2018 03:34 7,4 C 6,7 C 6,1 C 95 % 1009,1 hPa 0,0 l/m 0 min 0 min 0 W/m 9,7 km/h (2 Bft) 84,78 %
04.12.2018 03:36 7,4 C 6,7 C 6,1 C 95 % 1009,1 hPa 0,0 l/m 0 min 0 min 0 W/m 6,4 km/h (2 Bft) 89,36 %
04.12.2018 03:38 7,4 C 6,7 C 6,1 C 95 % 1009,1 hPa 0,0 l/m 0 min 0 min 0 W/m 9,7 km/h (2 Bft) 89,36 %
04.12.2018 03:40 7,4 C 6,7 C 6,1 C 95 % 1009,1 hPa 0,0 l/m 0 min 0 min 0 W/m 3,2 km/h (1 Bft) 97,87 %
04.12.2018 03:42 7,4 C 6,7 C 6,1 C 95 % 1009,1 hPa 0,0 l/m 0 min 0 min 0 W/m 6,4 km/h (2 Bft) 97,87 %
04.12.2018 03:44 7,4 C 6,7 C 6,1 C 95 % 1009,2 hPa 0,0 l/m 0 min 0 min 0 W/m 9,7 km/h (2 Bft) 97,83 %
04.12.2018 03:46 7,4 C 6,7 C 6,1 C 95 % 1009,1 hPa 0,0 l/m 0 min 0 min 0 W/m 3,2 km/h (1 Bft) 97,87 %
04.12.2018 03:48 7,4 C 6,7 C 6,1 C 96 % 1009,2 hPa 0,0 l/m 0 min 0 min 0 W/m 9,7 km/h (2 Bft) 95,24 %
04.12.2018 03:50 7,4 C 6,7 C 6,1 C 96 % 1009,3 hPa 0,0 l/m 0 min 0 min 0 W/m 12,9 km/h (3 Bft) 95,74 %
04.12.2018 03:52 7,4 C 6,7 C 6,1 C 96 % 1009,3 hPa 0,0 l/m 0 min 0 min 0 W/m 6,4 km/h (2 Bft) 97,96 %
04.12.2018 03:54 7,4 C 6,7 C 6,1 C 96 % 1009,3 hPa 0,0 l/m 0 min 0 min 0 W/m 6,4 km/h (2 Bft) 97,87 %
04.12.2018 03:56 7,4 C 6,7 C 6,1 C 96 % 1009,5 hPa 0,0 l/m 0 min 0 min 0 W/m 9,7 km/h (2 Bft) 95,74 %
04.12.2018 03:58 7,4 C 6,7 C 6,1 C 96 % 1009,7 hPa 0,0 l/m 0 min 0 min 0 W/m 9,7 km/h (2 Bft) 97,96 %
04.12.2018 04:00 7,4 C 6,7 C 6,1 C 96 % 1009,7 hPa 0,0 l/m 0 min 0 min 0 W/m 6,4 km/h (2 Bft) 95,74 %
04.12.2018 04:02 7,4 C 6,7 C 6,1 C 96 % 1009,7 hPa 0,0 l/m 0 min 0 min 0 W/m 9,7 km/h (2 Bft) 92,86 %
04.12.2018 04:04 7,4 C 6,7 C 6,1 C 96 % 1009,6 hPa 0,0 l/m 0 min 0 min 0 W/m 6,4 km/h (2 Bft) 100,00 %
04.12.2018 04:06 7,4 C 6,7 C 6,1 C 96 % 1009,5 hPa 0,0 l/m 0 min 0 min 0 W/m 6,4 km/h (2 Bft) 98,11 %
04.12.2018 04:08 7,4 C 6,7 C 6,1 C 96 % 1009,6 hPa 0,0 l/m 0 min 0 min 0 W/m 6,4 km/h (2 Bft) 100,00 %
04.12.2018 04:10 7,4 C 6,7 C 6,1 C 96 % 1009,6 hPa 0,0 l/m 0 min 0 min 0 W/m 6,4 km/h (2 Bft) 100,00 %
04.12.2018 04:12 7,4 C 6,7 C 6,1 C 96 % 1009,7 hPa 0,0 l/m 0 min 0 min 0 W/m 3,2 km/h (1 Bft) 97,96 %
04.12.2018 04:14 7,4 C 6,7 C 6,1 C 96 % 1009,7 hPa 0,0 l/m 0 min 0 min 0 W/m 6,4 km/h (2 Bft) 97,87 %
04.12.2018 04:16 7,4 C 6,7 C 6,1 C 96 % 1009,8 hPa 0,0 l/m 0 min 0 min 0 W/m 6,4 km/h (2 Bft) 92,68 %
04.12.2018 04:18 7,4 C 6,7 C 6,1 C 96 % 1009,8 hPa 0,0 l/m 0 min 0 min 0 W/m 6,4 km/h (2 Bft) 96,00 %
04.12.2018 04:20 7,4 C 6,7 C 6,1 C 96 % 1009,9 hPa 0,0 l/m 0 min 0 min 0 W/m 9,7 km/h (2 Bft) 97,96 %
04.12.2018 04:22 7,4 C 6,7 C 6,1 C 96 % 1009,9 hPa 0,0 l/m 0 min 0 min 0 W/m 9,7 km/h (2 Bft) 97,87 %
04.12.2018 04:24 7,4 C 6,7 C 6,1 C 96 % 1009,9 hPa 0,0 l/m 0 min 0 min 0 W/m 9,7 km/h (2 Bft) 97,87 %
04.12.2018 04:26 7,4 C 6,7 C 6,1 C 96 % 1009,9 hPa 0,0 l/m 0 min 0 min 0 W/m 6,4 km/h (2 Bft) 95,74 %
04.12.2018 04:28 7,4 C 6,7 C 6,1 C 96 % 1009,9 hPa 0,0 l/m 0 min 0 min 0 W/m 12,9 km/h (3 Bft) 97,56 %
04.12.2018 04:30 7,4 C 6,7 C 6,1 C 96 % 1010,1 hPa 0,0 l/m 0 min 0 min 0 W/m 12,9 km/h (3 Bft) 98,00 %
04.12.2018 04:32 7,4 C 6,7 C 6,1 C 96 % 1010,1 hPa 0,0 l/m 0 min 0 min 0 W/m 6,4 km/h (2 Bft) 97,96 %
04.12.2018 04:34 7,4 C 6,7 C 6,1 C 96 % 1010,1 hPa 0,0 l/m 0 min 0 min 0 W/m 6,4 km/h (2 Bft) 95,74 %
04.12.2018 04:36 7,4 C 6,7 C 6,1 C 96 % 1010,2 hPa 0,0 l/m 0 min 0 min 0 W/m 12,9 km/h (3 Bft) 95,74 %
04.12.2018 04:38 7,4 C 6,7 C 6,1 C 96 % 1010,3 hPa 0,0 l/m 0 min 0 min 0 W/m 9,7 km/h (2 Bft) 95,74 %
04.12.2018 04:40 7,4 C 6,7 C 6,1 C 96 % 1010,2 hPa 0,0 l/m 0 min 0 min 0 W/m 6,4 km/h (2 Bft) 95,74 %
04.12.2018 04:42 7,4 C 6,7 C 6,1 C 96 % 1010,2 hPa 0,0 l/m 0 min 0 min 0 W/m 9,7 km/h (2 Bft) 95,74 %
04.12.2018 04:44 7,4 C 6,7 C 6,1 C 96 % 1010,3 hPa 0,0 l/m 0 min 0 min 0 W/m 6,4 km/h (2 Bft) 93,48 %
04.12.2018 04:46 7,4 C 6,7 C 6,1 C 96 % 1010,4 hPa 0,0 l/m 0 min 0 min 0 W/m 6,4 km/h (2 Bft) 95,24 %
04.12.2018 04:48 7,4 C 6,7 C 6,1 C 96 % 1010,4 hPa 0,0 l/m 0 min 0 min 0 W/m 9,7 km/h (2 Bft) 94,00 %
04.12.2018 04:50 7,4 C 6,7 C 6,1 C 96 % 1010,4 hPa 0,0 l/m 0 min 0 min 0 W/m 6,4 km/h (2 Bft) 95,92 %
04.12.2018 04:52 7,3 C 6,7 C 6,1 C 96 % 1010,4 hPa 0,0 l/m 0 min 0 min 0 W/m 9,7 km/h (2 Bft) 95,74 %
04.12.2018 04:54 7,3 C 6,7 C 6,1 C 96 % 1010,4 hPa 0,0 l/m 0 min 0 min 0 W/m 6,4 km/h (2 Bft) 95,65 %
04.12.2018 04:56 7,3 C 6,7 C 6,1 C 96 % 1010,4 hPa 0,0 l/m 0 min 0 min 0 W/m 9,7 km/h (2 Bft) 95,24 %
04.12.2018 04:58 7,3 C 6,7 C 6,1 C 96 % 1010,4 hPa 0,0 l/m 0 min 0 min 0 W/m 9,7 km/h (2 Bft) 95,74 %
04.12.2018 05:00 7,3 C 6,7 C 6,1 C 96 % 1010,4 hPa 0,0 l/m 0 min 0 min 0 W/m 3,2 km/h (1 Bft) 93,62 %
04.12.2018 05:02 7,3 C 6,7 C 6,1 C 96 % 1010,6 hPa 0,0 l/m 0 min 0 min 0 W/m 6,4 km/h (2 Bft) 95,65 %
04.12.2018 05:04 7,3 C 6,7 C 6,1 C 96 % 1010,6 hPa 0,0 l/m 0 min 0 min 0 W/m 9,7 km/h (2 Bft) 94,00 %
04.12.2018 05:06 7,3 C 6,7 C 6,1 C 96 % 1010,6 hPa 0,0 l/m 0 min 0 min 0 W/m 6,4 km/h (2 Bft) 97,87 %
04.12.2018 05:08 7,3 C 6,7 C 6,1 C 96 % 1010,6 hPa 0,0 l/m 0 min 0 min 0 W/m 9,7 km/h (2 Bft) 97,87 %
04.12.2018 05:10 7,3 C 6,7 C 6,1 C 96 % 1010,6 hPa 0,0 l/m 0 min 0 min 0 W/m 9,7 km/h (2 Bft) 93,62 %
04.12.2018 05:12 7,3 C 6,7 C 6,1 C 96 % 1010,7 hPa 0,0 l/m 0 min 0 min 0 W/m 6,4 km/h (2 Bft) 97,96 %
04.12.2018 05:14 7,3 C 6,7 C 6,1 C 96 % 1010,8 hPa 0,0 l/m 0 min 0 min 0 W/m 6,4 km/h (2 Bft) 97,87 %
04.12.2018 05:16 7,3 C 6,7 C 6,1 C 96 % 1010,8 hPa 0,0 l/m 0 min 0 min 0 W/m 6,4 km/h (2 Bft) 97,87 %
04.12.2018 05:18 7,3 C 6,7 C 6,1 C 96 % 1010,8 hPa 0,0 l/m 0 min 0 min 0 W/m 6,4 km/h (2 Bft) 97,56 %
04.12.2018 05:20 7,3 C 6,1 C 6,1 C 96 % 1010,9 hPa 0,0 l/m 0 min 0 min 0 W/m 6,4 km/h (2 Bft) 98,00 %
04.12.2018 05:22 7,3 C 6,7 C 6,1 C 96 % 1010,9 hPa 0,0 l/m 0 min 0 min 0 W/m 6,4 km/h (2 Bft) 100,00 %
04.12.2018 05:24 7,3 C 6,1 C 6,1 C 96 % 1011,0 hPa 0,0 l/m 0 min 0 min 0 W/m 9,7 km/h (2 Bft) 100,00 %
04.12.2018 05:26 7,3 C 6,1 C 6,1 C 96 % 1011,0 hPa 0,0 l/m 0 min 0 min 0 W/m 9,7 km/h (2 Bft) 100,00 %
04.12.2018 05:28 7,3 C 6,1 C 6,1 C 96 % 1011,1 hPa 0,0 l/m 0 min 0 min 0 W/m 6,4 km/h (2 Bft) 100,00 %
04.12.2018 05:30 7,3 C 6,1 C 6,1 C 96 % 1011,1 hPa 0,0 l/m 0 min 0 min 0 W/m 6,4 km/h (2 Bft) 100,00 %
04.12.2018 05:32 7,3 C 6,1 C 6,1 C 96 % 1011,3 hPa 0,0 l/m 0 min 0 min 0 W/m 6,4 km/h (2 Bft) 100,00 %
04.12.2018 05:34 7,3 C 6,1 C 6,1 C 96 % 1011,3 hPa 0,0 l/m 0 min 0 min 0 W/m 6,4 km/h (2 Bft) 100,00 %
04.12.2018 05:36 7,2 C 6,1 C 6,1 C 96 % 1011,4 hPa 0,0 l/m 0 min 0 min 0 W/m 3,2 km/h (1 Bft) 100,00 %
04.12.2018 05:38 7,2 C 6,1 C 6,1 C 96 % 1011,4 hPa 0,0 l/m 0 min 0 min 0 W/m 9,7 km/h (2 Bft) 100,00 %
04.12.2018 05:40 7,2 C 6,1 C 6,1 C 96 % 1011,4 hPa 0,0 l/m 0 min 0 min 0 W/m 6,4 km/h (2 Bft) 100,00 %
04.12.2018 05:42 7,2 C 6,1 C 6,1 C 96 % 1011,5 hPa 0,0 l/m 0 min 0 min 0 W/m 0,0 km/h (0 Bft) 100,00 %
04.12.2018 05:44 7,2 C 6,1 C 6,1 C 96 % 1011,5 hPa 0,0 l/m 0 min 0 min 0 W/m 0,0 km/h (0 Bft) 100,00 %
04.12.2018 05:46 7,2 C 6,1 C 5,6 C 96 % 1011,5 hPa 0,0 l/m 0 min 0 min 0 W/m 0,0 km/h (0 Bft) 95,74 %
04.12.2018 05:48 7,2 C 6,1 C 5,6 C 96 % 1011,5 hPa 0,0 l/m 0 min 0 min 0 W/m 6,4 km/h (2 Bft) 97,56 %
04.12.2018 05:50 7,2 C 6,1 C 5,6 C 96 % 1011,7 hPa 0,0 l/m 0 min 0 min 0 W/m 3,2 km/h (1 Bft) 100,00 %
04.12.2018 05:52 7,1 C 6,1 C 5,6 C 96 % 1011,7 hPa 0,0 l/m 0 min 0 min 0 W/m 3,2 km/h (1 Bft) 100,00 %
04.12.2018 05:54 7,1 C 6,1 C 5,6 C 96 % 1011,7 hPa 0,0 l/m 0 min 0 min 0 W/m 6,4 km/h (2 Bft) 100,00 %
04.12.2018 05:56 7,1 C 6,1 C 5,6 C 96 % 1011,8 hPa 0,0 l/m 0 min 0 min 0 W/m 6,4 km/h (2 Bft) 100,00 %
04.12.2018 05:58 7,1 C 6,1 C 5,6 C 96 % 1011,8 hPa 0,0 l/m 0 min 0 min 0 W/m 3,2 km/h (1 Bft) 100,00 %
04.12.2018 06:00 7,0 C 6,1 C 5,6 C 96 % 1011,9 hPa 0,0 l/m 0 min 0 min 0 W/m 9,7 km/h (2 Bft) 97,96 %
04.12.2018 06:02 7,0 C 6,1 C 5,6 C 96 % 1011,9 hPa 0,0 l/m 0 min 0 min 0 W/m 6,4 km/h (2 Bft) 96,00 %
04.12.2018 06:04 7,0 C 6,1 C 5,6 C 96 % 1012,0 hPa 0,0 l/m 0 min 0 min 0 W/m 6,4 km/h (2 Bft) 97,83 %
04.12.2018 06:08 7,0 C 6,1 C 5,6 C 96 % 1012,0 hPa 0,0 l/m 0 min 0 min 0 W/m 6,4 km/h (2 Bft) 96,81 %
04.12.2018 06:10 6,9 C 6,1 C 5,6 C 96 % 1012,0 hPa 0,0 l/m 0 min 0 min 0 W/m 6,4 km/h (2 Bft) 97,62 %
04.12.2018 06:12 6,9 C 6,1 C 5,6 C 96 % 1012,0 hPa 0,0 l/m 0 min 0 min 0 W/m 12,9 km/h (3 Bft) 97,96 %
04.12.2018 06:14 6,9 C 6,1 C 5,6 C 96 % 1012,1 hPa 0,0 l/m 0 min 0 min 0 W/m 12,9 km/h (3 Bft) 94,00 %
04.12.2018 06:16 6,9 C 6,1 C 5,6 C 96 % 1012,1 hPa 0,0 l/m 0 min 0 min 0 W/m 6,4 km/h (2 Bft) 97,83 %
04.12.2018 06:18 6,9 C 6,1 C 5,6 C 96 % 1012,2 hPa 0,0 l/m 0 min 0 min 0 W/m 9,7 km/h (2 Bft) 97,87 %
04.12.2018 06:20 6,9 C 6,1 C 5,6 C 96 % 1012,2 hPa 0,0 l/m 0 min 0 min 0 W/m 9,7 km/h (2 Bft) 95,74 %
04.12.2018 06:22 6,9 C 6,1 C 5,6 C 96 % 1012,3 hPa 0,0 l/m 0 min 0 min 0 W/m 9,7 km/h (2 Bft) 97,87 %
04.12.2018 06:24 6,9 C 6,1 C 5,6 C 96 % 1012,3 hPa 0,0 l/m 0 min 0 min 0 W/m 9,7 km/h (2 Bft) 95,74 %
04.12.2018 06:26 6,9 C 6,1 C 5,6 C 96 % 1012,3 hPa 0,0 l/m 0 min 0 min 0 W/m 9,7 km/h (2 Bft) 97,87 %
04.12.2018 06:28 6,9 C 6,1 C 5,6 C 96 % 1012,4 hPa 0,0 l/m 0 min 0 min 0 W/m 6,4 km/h (2 Bft) 97,56 %
04.12.2018 06:30 6,9 C 6,1 C 5,6 C 96 % 1012,5 hPa 0,0 l/m 0 min 0 min 0 W/m 9,7 km/h (2 Bft) 98,00 %
04.12.2018 06:32 6,9 C 6,1 C 5,6 C 96 % 1012,5 hPa 0,0 l/m 0 min 0 min 0 W/m 9,7 km/h (2 Bft) 95,74 %
04.12.2018 06:34 6,9 C 6,1 C 5,6 C 96 % 1012,5 hPa 0,0 l/m 0 min 0 min 0 W/m 9,7 km/h (2 Bft) 97,83 %
04.12.2018 06:36 6,9 C 6,1 C 5,6 C 96 % 1012,6 hPa 0,0 l/m 0 min 0 min 0 W/m 6,4 km/h (2 Bft) 97,87 %
04.12.2018 06:38 6,9 C 6,1 C 5,6 C 96 % 1012,6 hPa 0,0 l/m 0 min 0 min 0 W/m 16,1 km/h (3 Bft) 96,00 %
04.12.2018 06:40 6,9 C 6,1 C 5,6 C 96 % 1012,6 hPa 0,0 l/m 0 min 0 min 0 W/m 6,4 km/h (2 Bft) 97,83 %
04.12.2018 06:42 6,9 C 6,1 C 5,6 C 96 % 1012,7 hPa 0,0 l/m 0 min 0 min 0 W/m 9,7 km/h (2 Bft) 95,74 %
04.12.2018 06:44 6,9 C 6,1 C 5,6 C 96 % 1012,7 hPa 0,0 l/m 0 min 0 min 0 W/m 9,7 km/h (2 Bft) 97,87 %
04.12.2018 06:46 6,9 C 6,1 C 5,6 C 96 % 1012,7 hPa 0,0 l/m 0 min 0 min 0 W/m 9,7 km/h (2 Bft) 97,87 %
04.12.2018 06:48 6,9 C 6,1 C 5,6 C 96 % 1012,8 hPa 0,0 l/m 0 min 0 min 0 W/m 6,4 km/h (2 Bft) 97,56 %
04.12.2018 06:50 6,9 C 6,1 C 6,1 C 96 % 1012,7 hPa 0,0 l/m 0 min 0 min 0 W/m 9,7 km/h (2 Bft) 97,87 %
04.12.2018 06:52 6,9 C 6,1 C 6,1 C 96 % 1012,8 hPa 0,0 l/m 0 min 0 min 0 W/m 12,9 km/h (3 Bft) 98,00 %
04.12.2018 06:54 7,0 C 6,1 C 6,1 C 96 % 1012,8 hPa 0,0 l/m 0 min 0 min 0 W/m 6,4 km/h (2 Bft) 97,87 %
04.12.2018 06:56 7,0 C 6,1 C 6,1 C 96 % 1012,8 hPa 0,0 l/m 0 min 2 min 0 W/m 6,4 km/h (2 Bft) 97,96 %
04.12.2018 06:58 7,0 C 6,1 C 6,1 C 96 % 1012,9 hPa 0,0 l/m 0 min 2 min 0 W/m 12,9 km/h (3 Bft) 97,87 %
04.12.2018 07:00 7,0 C 6,1 C 6,1 C 96 % 1012,9 hPa 0,0 l/m 0 min 2 min 0 W/m 12,9 km/h (3 Bft) 100,00 %
04.12.2018 07:02 7,0 C 6,1 C 5,6 C 96 % 1012,9 hPa 0,0 l/m 0 min 0 min 0 W/m 12,9 km/h (3 Bft) 92,68 %
04.12.2018 07:04 7,0 C 6,1 C 5,6 C 96 % 1013,0 hPa 0,0 l/m 0 min 0 min 0 W/m 9,7 km/h (2 Bft) 100,00 %
04.12.2018 07:06 7,0 C 6,1 C 5,6 C 96 % 1013,0 hPa 0,0 l/m 0 min 0 min 0 W/m 6,4 km/h (2 Bft) 98,28 %
04.12.2018 07:08 7,0 C 6,1 C 5,6 C 96 % 1013,0 hPa 0,0 l/m 0 min 0 min 0 W/m 6,4 km/h (2 Bft) 97,37 %
04.12.2018 07:10 7,0 C 6,1 C 5,6 C 96 % 1013,1 hPa 0,0 l/m 0 min 0 min 0 W/m 6,4 km/h (2 Bft) 97,87 %
04.12.2018 07:12 7,0 C 6,1 C 5,6 C 96 % 1013,1 hPa 0,0 l/m 0 min 0 min 0 W/m 9,7 km/h (2 Bft) 98,00 %
04.12.2018 07:14 7,0 C 6,1 C 5,6 C 96 % 1013,2 hPa 0,0 l/m 0 min 0 min 0 W/m 9,7 km/h (2 Bft) 97,87 %
04.12.2018 07:16 7,0 C 6,1 C 5,6 C 96 % 1013,2 hPa 0,0 l/m 0 min 0 min 0 W/m 9,7 km/h (2 Bft) 97,83 %
04.12.2018 07:18 6,9 C 6,1 C 5,6 C 96 % 1013,3 hPa 0,0 l/m 0 min 0 min 0 W/m 9,7 km/h (2 Bft) 97,62 %
04.12.2018 07:20 6,9 C 6,1 C 5,6 C 96 % 1013,4 hPa 0,0 l/m 0 min 0 min 0 W/m 9,7 km/h (2 Bft) 95,74 %
04.12.2018 07:22 6,9 C 6,1 C 5,6 C 96 % 1013,5 hPa 0,0 l/m 0 min 0 min 0 W/m 6,4 km/h (2 Bft) 97,96 %
04.12.2018 07:24 6,9 C 6,1 C 5,6 C 96 % 1013,4 hPa 0,0 l/m 0 min 0 min 0 W/m 6,4 km/h (2 Bft) 95,74 %
04.12.2018 07:26 6,9 C 6,1 C 5,6 C 96 % 1013,5 hPa 0,0 l/m 0 min 0 min 0 W/m 12,9 km/h (3 Bft) 96,00 %
04.12.2018 07:28 6,9 C 6,1 C 5,6 C 96 % 1013,5 hPa 0,0 l/m 0 min 0 min 0 W/m 9,7 km/h (2 Bft) 97,83 %
04.12.2018 07:30 6,9 C 6,1 C 5,6 C 96 % 1013,6 hPa 0,0 l/m 0 min 0 min 0 W/m 9,7 km/h (2 Bft) 97,62 %
04.12.2018 07:32 6,9 C 6,1 C 5,6 C 96 % 1013,8 hPa 0,0 l/m 0 min 0 min 0 W/m 6,4 km/h (2 Bft) 97,87 %
04.12.2018 07:34 6,9 C 6,1 C 5,6 C 96 % 1013,7 hPa 0,0 l/m 0 min 0 min 0 W/m 0,0 km/h (0 Bft) 97,83 %
04.12.2018 07:36 6,9 C 6,1 C 5,6 C 96 % 1013,9 hPa 0,0 l/m 0 min 0 min 0 W/m 0,0 km/h (0 Bft) 98,00 %
04.12.2018 07:38 6,8 C 6,1 C 5,6 C 96 % 1013,9 hPa 0,0 l/m 0 min 0 min 0 W/m 0,0 km/h (0 Bft) 97,96 %
04.12.2018 07:40 6,8 C 6,1 C 5,6 C 96 % 1014,0 hPa 0,0 l/m 0 min 0 min 0 W/m 0,0 km/h (0 Bft) 95,74 %
04.12.2018 07:42 6,8 C 6,1 C 5,6 C 96 % 1014,1 hPa 0,0 l/m 0 min 0 min 0 W/m 0,0 km/h (0 Bft) 95,74 %
04.12.2018 07:44 6,8 C 6,1 C 5,6 C 96 % 1014,1 hPa 0,0 l/m 0 min 0 min 0 W/m 0,0 km/h (0 Bft) 93,62 %
04.12.2018 07:46 6,8 C 5,6 C 5,6 C 96 % 1014,1 hPa 0,0 l/m 0 min 0 min 0 W/m 0,0 km/h (0 Bft) 93,62 %
04.12.2018 07:48 6,8 C 5,6 C 5,6 C 96 % 1014,1 hPa 0,0 l/m 0 min 0 min 0 W/m 0,0 km/h (0 Bft) 93,62 %
04.12.2018 07:50 6,8 C 5,6 C 5,6 C 96 % 1014,2 hPa 0,0 l/m 0 min 0 min 0 W/m 0,0 km/h (0 Bft) 97,83 %
04.12.2018 07:52 6,8 C 5,6 C 5,6 C 96 % 1014,2 hPa 0,0 l/m 0 min 0 min 0 W/m 0,0 km/h (0 Bft) 97,67 %
04.12.2018 07:54 6,8 C 5,6 C 5,6 C 96 % 1014,3 hPa 0,0 l/m 0 min 0 min 0 W/m 0,0 km/h (0 Bft) 95,74 %
04.12.2018 07:56 6,8 C 5,6 C 5,6 C 96 % 1014,3 hPa 0,0 l/m 0 min 0 min 0 W/m 6,4 km/h (2 Bft) 95,92 %
04.12.2018 07:58 6,8 C 5,6 C 5,6 C 96 % 1014,3 hPa 0,0 l/m 0 min 0 min 0 W/m 6,4 km/h (2 Bft) 97,87 %
04.12.2018 08:00 6,7 C 5,6 C 5,6 C 96 % 1014,4 hPa 0,0 l/m 0 min 0 min 0 W/m 6,4 km/h (2 Bft) 97,87 %
04.12.2018 08:02 6,8 C 5,6 C 5,6 C 96 % 1014,4 hPa 0,0 l/m 0 min 0 min 0 W/m 6,4 km/h (2 Bft) 95,83 %
04.12.2018 08:04 6,7 C 5,6 C 5,6 C 96 % 1014,4 hPa 0,0 l/m 0 min 0 min 0 W/m 6,4 km/h (2 Bft) 97,87 %
04.12.2018 08:06 6,7 C 5,6 C 5,6 C 96 % 1014,5 hPa 0,0 l/m 0 min 0 min 0 W/m 6,4 km/h (2 Bft) 97,87 %
04.12.2018 08:08 6,7 C 5,6 C 5,6 C 96 % 1014,5 hPa 0,0 l/m 0 min 0 min 0 W/m 6,4 km/h (2 Bft) 97,67 %
04.12.2018 08:10 6,7 C 5,6 C 5,6 C 96 % 1014,5 hPa 0,0 l/m 0 min 0 min 0 W/m 6,4 km/h (2 Bft) 97,87 %
04.12.2018 08:12 6,7 C 5,6 C 5,6 C 96 % 1014,5 hPa 0,0 l/m 0 min 0 min 0 W/m 6,4 km/h (2 Bft) 95,74 %
04.12.2018 08:14 6,7 C 5,6 C 5,6 C 96 % 1014,6 hPa 0,0 l/m 0 min 0 min 0 W/m 6,4 km/h (2 Bft) 98,00 %
04.12.2018 08:16 6,7 C 5,6 C 5,6 C 96 % 1014,7 hPa 0,0 l/m 0 min 0 min 0 W/m 3,2 km/h (1 Bft) 97,87 %
04.12.2018 08:18 6,7 C 5,6 C 5,6 C 96 % 1014,7 hPa 0,0 l/m 0 min 0 min 0 W/m 3,2 km/h (1 Bft) 95,74 %
04.12.2018 08:20 6,7 C 5,6 C 5,6 C 96 % 1014,8 hPa 0,0 l/m 0 min 0 min 0 W/m 6,4 km/h (2 Bft) 97,87 %
04.12.2018 08:22 6,6 C 5,6 C 5,6 C 96 % 1014,8 hPa 0,0 l/m 0 min 0 min 0 W/m 6,4 km/h (2 Bft) 97,87 %
04.12.2018 08:24 6,6 C 5,6 C 5,6 C 96 % 1014,9 hPa 0,0 l/m 0 min 0 min 0 W/m 9,7 km/h (2 Bft) 97,14 %
04.12.2018 08:26 6,6 C 5,6 C 5,6 C 96 % 1014,9 hPa 0,0 l/m 0 min 0 min 0 W/m 3,2 km/h (1 Bft) 96,30 %
04.12.2018 08:28 6,6 C 5,6 C 5,6 C 96 % 1015,0 hPa 0,0 l/m 0 min 0 min 5 W/m 9,7 km/h (2 Bft) 96,00 %
04.12.2018 08:30 6,6 C 5,6 C 5,0 C 96 % 1015,0 hPa 0,0 l/m 0 min 0 min 5 W/m 6,4 km/h (2 Bft) 95,65 %
04.12.2018 08:32 6,5 C 5,6 C 5,0 C 96 % 1015,1 hPa 0,0 l/m 0 min 0 min 5 W/m 6,4 km/h (2 Bft) 97,96 %
04.12.2018 08:34 6,5 C 5,6 C 5,0 C 96 % 1015,2 hPa 0,0 l/m 0 min 0 min 5 W/m 3,2 km/h (1 Bft) 97,87 %
04.12.2018 08:36 6,5 C 5,6 C 5,0 C 96 % 1015,3 hPa 0,0 l/m 0 min 0 min 6 W/m 3,2 km/h (1 Bft) 97,87 %
04.12.2018 08:38 6,5 C 5,6 C 5,0 C 96 % 1015,3 hPa 0,0 l/m 0 min 0 min 7 W/m 3,2 km/h (1 Bft) 97,83 %
04.12.2018 08:40 6,4 C 5,6 C 5,0 C 96 % 1015,3 hPa 0,0 l/m 0 min 0 min 8 W/m 6,4 km/h (2 Bft) 97,87 %
04.12.2018 08:42 6,4 C 5,6 C 5,0 C 96 % 1015,3 hPa 0,0 l/m 0 min 0 min 9 W/m 9,7 km/h (2 Bft) 95,74 %
04.12.2018 08:44 6,4 C 5,6 C 5,0 C 96 % 1015,5 hPa 0,0 l/m 0 min 0 min 10 W/m 9,7 km/h (2 Bft) 97,87 %
04.12.2018 08:46 6,4 C 5,6 C 5,0 C 96 % 1015,5 hPa 0,0 l/m 0 min 0 min 11 W/m 3,2 km/h (1 Bft) 100,00 %
04.12.2018 08:48 6,4 C 5,6 C 5,0 C 96 % 1015,5 hPa 0,0 l/m 0 min 0 min 11 W/m 6,4 km/h (2 Bft) 98,00 %
04.12.2018 08:50 6,4 C 5,6 C 5,0 C 96 % 1015,6 hPa 0,0 l/m 0 min 0 min 12 W/m 9,7 km/h (2 Bft) 95,74 %
04.12.2018 08:52 6,4 C 5,6 C 5,0 C 96 % 1015,6 hPa 0,0 l/m 0 min 0 min 15 W/m 6,4 km/h (2 Bft) 97,92 %
04.12.2018 08:54 6,4 C 5,6 C 5,0 C 96 % 1015,6 hPa 0,0 l/m 0 min 0 min 20 W/m 3,2 km/h (1 Bft) 95,74 %
04.12.2018 08:56 6,3 C 5,6 C 5,0 C 96 % 1015,7 hPa 0,0 l/m 0 min 0 min 25 W/m 3,2 km/h (1 Bft) 97,62 %
04.12.2018 08:58 6,3 C 5,6 C 5,0 C 96 % 1015,7 hPa 0,0 l/m 0 min 0 min 27 W/m 3,2 km/h (1 Bft) 97,87 %
04.12.2018 09:00 6,3 C 6,1 C 5,0 C 96 % 1015,7 hPa 0,0 l/m 0 min 0 min 28 W/m 6,4 km/h (2 Bft) 97,87 %
04.12.2018 09:02 6,3 C 6,1 C 5,0 C 96 % 1015,8 hPa 0,0 l/m 0 min 0 min 29 W/m 6,4 km/h (2 Bft) 97,87 %
04.12.2018 09:04 6,3 C 6,1 C 5,0 C 96 % 1015,8 hPa 0,0 l/m 0 min 0 min 28 W/m 6,4 km/h (2 Bft) 97,87 %
04.12.2018 09:06 6,3 C 6,1 C 5,0 C 96 % 1015,8 hPa 0,0 l/m 0 min 0 min 27 W/m 6,4 km/h (2 Bft) 94,83 %
04.12.2018 09:08 6,3 C 6,1 C 5,0 C 96 % 1015,9 hPa 0,0 l/m 0 min 0 min 26 W/m 6,4 km/h (2 Bft) 94,29 %
04.12.2018 09:10 6,2 C 6,1 C 5,0 C 96 % 1015,9 hPa 0,0 l/m 0 min 0 min 27 W/m 3,2 km/h (1 Bft) 97,87 %
04.12.2018 09:12 6,2 C 6,1 C 5,0 C 95 % 1015,9 hPa 0,0 l/m 0 min 0 min 26 W/m 3,2 km/h (1 Bft) 97,87 %
04.12.2018 09:14 6,2 C 6,1 C 5,0 C 95 % 1016,0 hPa 0,0 l/m 0 min 0 min 27 W/m 6,4 km/h (2 Bft) 96,00 %
04.12.2018 09:16 6,2 C 5,6 C 5,0 C 95 % 1016,0 hPa 0,0 l/m 0 min 0 min 28 W/m 9,7 km/h (2 Bft) 97,92 %
04.12.2018 09:18 6,2 C 5,6 C 5,0 C 95 % 1016,2 hPa 0,0 l/m 0 min 0 min 27 W/m 6,4 km/h (2 Bft) 97,87 %
04.12.2018 09:20 6,2 C 5,6 C 5,0 C 95 % 1016,1 hPa 0,0 l/m 0 min 0 min 26 W/m 9,7 km/h (2 Bft) 95,74 %
04.12.2018 09:22 6,2 C 5,6 C 5,0 C 95 % 1016,3 hPa 0,0 l/m 0 min 0 min 25 W/m 6,4 km/h (2 Bft) 95,74 %
04.12.2018 09:24 6,1 C 5,6 C 5,0 C 95 % 1016,3 hPa 0,0 l/m 0 min 0 min 25 W/m 6,4 km/h (2 Bft) 91,30 %
04.12.2018 09:26 6,1 C 5,6 C 5,0 C 95 % 1016,4 hPa 0,0 l/m 0 min 0 min 25 W/m 6,4 km/h (2 Bft) 97,87 %
04.12.2018 09:28 6,1 C 5,6 C 5,0 C 95 % 1016,5 hPa 0,0 l/m 0 min 0 min 26 W/m 6,4 km/h (2 Bft) 93,62 %
04.12.2018 09:30 6,1 C 5,6 C 5,0 C 95 % 1016,6 hPa 0,0 l/m 0 min 0 min 26 W/m 6,4 km/h (2 Bft) 95,74 %
04.12.2018 09:32 6,1 C 5,6 C 4,4 C 95 % 1016,6 hPa 0,0 l/m 0 min 0 min 28 W/m 6,4 km/h (2 Bft) 95,24 %
04.12.2018 09:34 6,0 C 5,6 C 4,4 C 95 % 1016,6 hPa 0,0 l/m 0 min 0 min 31 W/m 6,4 km/h (2 Bft) 95,74 %
04.12.2018 09:36 6,0 C 6,1 C 4,4 C 95 % 1016,6 hPa 0,0 l/m 0 min 0 min 43 W/m 9,7 km/h (2 Bft) 96,00 %
04.12.2018 09:38 6,0 C 6,1 C 4,4 C 95 % 1016,7 hPa 0,0 l/m 0 min 0 min 73 W/m 6,4 km/h (2 Bft) 97,87 %
04.12.2018 09:40 6,0 C 6,7 C 4,4 C 95 % 1016,8 hPa 0,0 l/m 0 min 0 min 75 W/m 9,7 km/h (2 Bft) 93,48 %
04.12.2018 09:42 6,0 C 6,1 C 4,4 C 95 % 1016,9 hPa 0,0 l/m 0 min 0 min 47 W/m 6,4 km/h (2 Bft) 97,87 %
04.12.2018 09:44 6,0 C 6,1 C 4,4 C 95 % 1016,8 hPa 0,0 l/m 0 min 0 min 27 W/m 3,2 km/h (1 Bft) 97,87 %
04.12.2018 09:46 6,0 C 6,1 C 4,4 C 95 % 1016,8 hPa 0,0 l/m 0 min 0 min 31 W/m 3,2 km/h (1 Bft) 97,87 %
04.12.2018 09:48 6,0 C 6,1 C 4,4 C 95 % 1016,8 hPa 0,0 l/m 0 min 0 min 38 W/m 6,4 km/h (2 Bft) 95,74 %
04.12.2018 09:50 6,0 C 6,1 C 4,4 C 95 % 1016,9 hPa 0,0 l/m 0 min 0 min 44 W/m 9,7 km/h (2 Bft) 97,87 %
04.12.2018 09:52 5,9 C 6,1 C 5,0 C 95 % 1017,0 hPa 0,0 l/m 0 min 0 min 42 W/m 3,2 km/h (1 Bft) 97,83 %
04.12.2018 09:54 6,0 C 6,7 C 5,0 C 95 % 1017,0 hPa 0,0 l/m 0 min 0 min 69 W/m 6,4 km/h (2 Bft) 97,96 %
04.12.2018 09:56 6,0 C 7,8 C 5,0 C 95 % 1017,0 hPa 0,0 l/m 2 min 0 min 108 W/m 6,4 km/h (2 Bft) 97,87 %
04.12.2018 09:58 6,0 C 8,9 C 5,0 C 95 % 1017,0 hPa 0,0 l/m 2 min 0 min 115 W/m 6,4 km/h (2 Bft) 95,65 %
04.12.2018 10:00 6,1 C 8,9 C 5,0 C 95 % 1017,0 hPa 0,0 l/m 2 min 0 min 138 W/m 3,2 km/h (1 Bft) 97,87 %
04.12.2018 10:02 6,1 C 9,4 C 5,0 C 95 % 1017,1 hPa 0,0 l/m 2 min 0 min 110 W/m 6,4 km/h (2 Bft) 95,74 %
04.12.2018 10:04 6,1 C 10,0 C 5,0 C 95 % 1017,1 hPa 0,0 l/m 2 min 0 min 133 W/m 6,4 km/h (2 Bft) 97,67 %
04.12.2018 10:06 6,2 C 10,0 C 5,0 C 95 % 1017,2 hPa 0,0 l/m 2 min 0 min 143 W/m 6,4 km/h (2 Bft) 96,55 %
04.12.2018 10:08 6,2 C 10,0 C 5,0 C 95 % 1017,2 hPa 0,0 l/m 2 min 0 min 149 W/m 6,4 km/h (2 Bft) 97,14 %
04.12.2018 10:10 6,3 C 9,4 C 5,0 C 95 % 1017,2 hPa 0,0 l/m 0 min 0 min 99 W/m 6,4 km/h (2 Bft) 95,74 %
04.12.2018 10:12 6,3 C 9,4 C 5,0 C 95 % 1017,3 hPa 0,0 l/m 0 min 0 min 99 W/m 9,7 km/h (2 Bft) 97,87 %
04.12.2018 10:14 6,4 C 9,4 C 5,0 C 95 % 1017,4 hPa 0,0 l/m 2 min 0 min 137 W/m 9,7 km/h (2 Bft) 98,00 %
04.12.2018 10:16 6,4 C 10,0 C 5,0 C 95 % 1017,4 hPa 0,0 l/m 2 min 0 min 140 W/m 6,4 km/h (2 Bft) 100,00 %
04.12.2018 10:18 6,4 C 10,6 C 5,6 C 95 % 1017,4 hPa 0,0 l/m 2 min 0 min 142 W/m 6,4 km/h (2 Bft) 100,00 %
04.12.2018 10:20 6,5 C 11,1 C 5,6 C 95 % 1017,5 hPa 0,0 l/m 2 min 0 min 173 W/m 6,4 km/h (2 Bft) 100,00 %
04.12.2018 10:22 6,6 C 11,7 C 5,6 C 95 % 1017,6 hPa 0,0 l/m 2 min 0 min 177 W/m 9,7 km/h (2 Bft) 95,12 %
04.12.2018 10:24 6,6 C 11,7 C 5,6 C 95 % 1017,5 hPa 0,0 l/m 2 min 0 min 176 W/m 6,4 km/h (2 Bft) 100,00 %
04.12.2018 10:26 6,7 C 12,2 C 5,6 C 95 % 1017,6 hPa 0,0 l/m 2 min 0 min 157 W/m 6,4 km/h (2 Bft) 100,00 %
04.12.2018 10:28 6,7 C 12,8 C 5,6 C 95 % 1017,7 hPa 0,0 l/m 2 min 0 min 178 W/m 9,7 km/h (2 Bft) 100,00 %
04.12.2018 10:30 6,8 C 12,2 C 5,6 C 95 % 1017,7 hPa 0,0 l/m 2 min 0 min 189 W/m 9,7 km/h (2 Bft) 100,00 %
04.12.2018 10:32 6,9 C 11,7 C 5,6 C 95 % 1017,8 hPa 0,0 l/m 2 min 0 min 180 W/m 16,1 km/h (3 Bft) 100,00 %
04.12.2018 10:34 6,9 C 11,7 C 6,1 C 95 % 1017,9 hPa 0,0 l/m 2 min 0 min 150 W/m 12,9 km/h (3 Bft) 100,00 %
04.12.2018 10:36 7,0 C 11,1 C 6,1 C 95 % 1017,9 hPa 0,0 l/m 2 min 0 min 131 W/m 6,4 km/h (2 Bft) 98,31 %
04.12.2018 10:38 7,1 C 10,6 C 6,1 C 95 % 1018,0 hPa 0,0 l/m 0 min 0 min 122 W/m 9,7 km/h (2 Bft) 100,00 %
04.12.2018 10:40 7,1 C 11,1 C 6,1 C 95 % 1018,0 hPa 0,0 l/m 0 min 0 min 102 W/m 12,9 km/h (3 Bft) 100,00 %
04.12.2018 10:42 7,2 C 11,1 C 6,1 C 95 % 1018,0 hPa 0,0 l/m 2 min 0 min 163 W/m 16,1 km/h (3 Bft) 100,00 %
04.12.2018 10:44 7,2 C 10,6 C 6,1 C 95 % 1018,0 hPa 0,0 l/m 2 min 0 min 175 W/m 12,9 km/h (3 Bft) 100,00 %
04.12.2018 10:46 7,3 C 10,6 C 6,1 C 95 % 1018,1 hPa 0,0 l/m 2 min 0 min 161 W/m 6,4 km/h (2 Bft) 100,00 %
04.12.2018 10:48 7,3 C 10,0 C 6,1 C 94 % 1018,2 hPa 0,0 l/m 2 min 0 min 161 W/m 9,7 km/h (2 Bft) 100,00 %
04.12.2018 10:50 7,4 C 11,1 C 6,1 C 94 % 1018,2 hPa 0,0 l/m 2 min 0 min 162 W/m 6,4 km/h (2 Bft) 100,00 %
04.12.2018 10:52 7,4 C 11,1 C 6,7 C 94 % 1018,3 hPa 0,0 l/m 2 min 0 min 149 W/m 6,4 km/h (2 Bft) 100,00 %
04.12.2018 10:54 7,5 C 11,1 C 6,7 C 94 % 1018,2 hPa 0,0 l/m 2 min 0 min 194 W/m 9,7 km/h (2 Bft) 95,74 %
04.12.2018 10:56 7,6 C 10,6 C 6,7 C 94 % 1018,3 hPa 0,0 l/m 2 min 0 min 152 W/m 9,7 km/h (2 Bft) 97,87 %
04.12.2018 10:58 7,6 C 11,1 C 6,7 C 94 % 1018,3 hPa 0,0 l/m 2 min 0 min 150 W/m 9,7 km/h (2 Bft) 97,83 %
04.12.2018 11:00 7,6 C 11,7 C 6,7 C 93 % 1018,4 hPa 0,0 l/m 2 min 0 min 197 W/m 9,7 km/h (2 Bft) 97,62 %
04.12.2018 11:02 7,7 C 12,2 C 6,7 C 93 % 1018,4 hPa 0,0 l/m 2 min 0 min 160 W/m 12,9 km/h (3 Bft) 95,92 %
04.12.2018 11:04 7,7 C 12,2 C 6,7 C 93 % 1018,3 hPa 0,0 l/m 2 min 0 min 201 W/m 12,9 km/h (3 Bft) 96,00 %
04.12.2018 11:06 7,7 C 12,2 C 6,7 C 93 % 1018,4 hPa 0,0 l/m 2 min 0 min 201 W/m 9,7 km/h (2 Bft) 95,74 %
04.12.2018 11:08 7,8 C 13,3 C 6,7 C 92 % 1018,3 hPa 0,0 l/m 2 min 0 min 235 W/m 9,7 km/h (2 Bft) 95,65 %
04.12.2018 11:10 7,8 C 13,9 C 6,7 C 92 % 1018,3 hPa 0,0 l/m 2 min 0 min 238 W/m 12,9 km/h (3 Bft) 100,00 %
04.12.2018 11:12 7,9 C 13,3 C 6,7 C 92 % 1018,4 hPa 0,0 l/m 2 min 0 min 242 W/m 12,9 km/h (3 Bft) 95,24 %
04.12.2018 11:14 7,9 C 13,9 C 6,7 C 92 % 1018,4 hPa 0,0 l/m 2 min 0 min 249 W/m 16,1 km/h (3 Bft) 95,92 %
04.12.2018 11:16 8,1 C 14,4 C 6,7 C 91 % 1018,4 hPa 0,0 l/m 2 min 0 min 249 W/m 12,9 km/h (3 Bft) 96,00 %
04.12.2018 11:18 8,1 C 14,4 C 6,7 C 91 % 1018,4 hPa 0,0 l/m 2 min 0 min 212 W/m 9,7 km/h (2 Bft) 95,74 %
04.12.2018 11:20 8,2 C 13,9 C 6,7 C 91 % 1018,5 hPa 0,0 l/m 2 min 0 min 251 W/m 12,9 km/h (3 Bft) 95,65 %
04.12.2018 11:22 8,2 C 13,9 C 6,7 C 91 % 1018,6 hPa 0,0 l/m 2 min 0 min 255 W/m 6,4 km/h (2 Bft) 95,24 %
04.12.2018 11:24 8,2 C 13,9 C 6,7 C 90 % 1018,6 hPa 0,0 l/m 2 min 0 min 253 W/m 9,7 km/h (2 Bft) 95,74 %
04.12.2018 11:26 8,3 C 13,3 C 6,7 C 90 % 1018,7 hPa 0,0 l/m 2 min 0 min 252 W/m 19,3 km/h (3 Bft) 95,65 %
04.12.2018 11:28 8,3 C 13,9 C 6,7 C 90 % 1018,7 hPa 0,0 l/m 2 min 0 min 258 W/m 9,7 km/h (2 Bft) 94,00 %
04.12.2018 11:30 8,4 C 15,0 C 7,2 C 90 % 1018,7 hPa 0,0 l/m 2 min 0 min 261 W/m 9,7 km/h (2 Bft) 96,00 %
04.12.2018 11:32 8,5 C 15,0 C 7,2 C 89 % 1018,7 hPa 0,0 l/m 2 min 0 min 253 W/m 9,7 km/h (2 Bft) 95,65 %
04.12.2018 11:34 8,6 C 15,6 C 7,2 C 89 % 1018,7 hPa 0,0 l/m 2 min 0 min 263 W/m 9,7 km/h (2 Bft) 97,87 %
04.12.2018 11:36 8,7 C 15,0 C 7,2 C 89 % 1018,8 hPa 0,0 l/m 2 min 0 min 271 W/m 12,9 km/h (3 Bft) 98,11 %
04.12.2018 11:38 8,7 C 15,6 C 7,2 C 89 % 1018,8 hPa 0,0 l/m 2 min 0 min 272 W/m 16,1 km/h (3 Bft) 97,22 %
04.12.2018 11:40 8,8 C 16,1 C 7,2 C 89 % 1018,8 hPa 0,0 l/m 2 min 0 min 273 W/m 9,7 km/h (2 Bft) 95,92 %
04.12.2018 11:42 8,9 C 16,1 C 7,2 C 89 % 1018,9 hPa 0,0 l/m 2 min 0 min 272 W/m 9,7 km/h (2 Bft) 96,00 %
04.12.2018 11:44 8,9 C 15,6 C 7,2 C 88 % 1018,9 hPa 0,0 l/m 2 min 0 min 273 W/m 19,3 km/h (3 Bft) 97,83 %
04.12.2018 11:46 9,0 C 15,6 C 7,2 C 88 % 1018,9 hPa 0,0 l/m 2 min 0 min 274 W/m 9,7 km/h (2 Bft) 97,62 %
04.12.2018 11:48 9,1 C 15,6 C 7,2 C 88 % 1018,9 hPa 0,0 l/m 2 min 0 min 261 W/m 19,3 km/h (3 Bft) 98,00 %
04.12.2018 11:50 9,1 C 15,0 C 7,2 C 87 % 1018,8 hPa 0,0 l/m 2 min 0 min 273 W/m 16,1 km/h (3 Bft) 97,96 %
04.12.2018 11:52 9,2 C 15,6 C 7,2 C 87 % 1018,9 hPa 0,0 l/m 2 min 0 min 276 W/m 16,1 km/h (3 Bft) 97,87 %
04.12.2018 11:54 9,2 C 15,6 C 7,2 C 86 % 1018,9 hPa 0,0 l/m 2 min 0 min 279 W/m 19,3 km/h (3 Bft) 95,74 %
04.12.2018 11:56 9,2 C 15,0 C 7,2 C 86 % 1018,9 hPa 0,0 l/m 2 min 0 min 279 W/m 12,9 km/h (3 Bft) 100,00 %
04.12.2018 11:58 9,2 C 15,6 C 7,2 C 85 % 1019,0 hPa 0,0 l/m 2 min 0 min 279 W/m 12,9 km/h (3 Bft) 97,87 %
04.12.2018 12:00 9,2 C 16,1 C 7,8 C 85 % 1019,0 hPa 0,0 l/m 2 min 0 min 282 W/m 9,7 km/h (2 Bft) 100,00 %
04.12.2018 12:02 9,3 C 16,1 C 7,8 C 85 % 1019,0 hPa 0,0 l/m 2 min 0 min 283 W/m 9,7 km/h (2 Bft) 97,96 %
04.12.2018 12:04 9,3 C 16,7 C 8,3 C 85 % 1019,0 hPa 0,0 l/m 2 min 0 min 287 W/m 6,4 km/h (2 Bft) 100,00 %
04.12.2018 12:08 9,4 C 16,7 C 10,0 C 84 % 1019,1 hPa 0,0 l/m 4 min 0 min 289 W/m 12,9 km/h (3 Bft) 100,00 %
04.12.2018 12:10 9,5 C 16,7 C 10,6 C 84 % 1019,0 hPa 0,0 l/m 2 min 0 min 290 W/m 9,7 km/h (2 Bft) 100,00 %
04.12.2018 12:12 9,6 C 16,7 C 11,1 C 84 % 1019,1 hPa 0,0 l/m 2 min 0 min 291 W/m 9,7 km/h (2 Bft) 97,87 %
04.12.2018 12:14 9,6 C 17,2 C 12,2 C 84 % 1019,1 hPa 0,0 l/m 2 min 0 min 294 W/m 9,7 km/h (2 Bft) 100,00 %
04.12.2018 12:16 9,7 C 17,2 C 13,3 C 83 % 1019,1 hPa 0,0 l/m 2 min 0 min 294 W/m 9,7 km/h (2 Bft) 100,00 %
04.12.2018 12:18 9,7 C 17,8 C 13,9 C 83 % 1019,1 hPa 0,0 l/m 2 min 0 min 295 W/m 9,7 km/h (2 Bft) 100,00 %
04.12.2018 12:20 9,8 C 17,2 C 13,3 C 83 % 1019,1 hPa 0,0 l/m 2 min 0 min 297 W/m 9,7 km/h (2 Bft) 100,00 %
04.12.2018 12:22 9,9 C 17,2 C 12,2 C 83 % 1019,1 hPa 0,0 l/m 2 min 0 min 298 W/m 9,7 km/h (2 Bft) 97,87 %
04.12.2018 12:24 9,9 C 17,2 C 10,6 C 83 % 1019,1 hPa 0,0 l/m 2 min 0 min 297 W/m 16,1 km/h (3 Bft) 100,00 %
04.12.2018 12:26 9,9 C 17,8 C 9,4 C 82 % 1019,2 hPa 0,0 l/m 2 min 0 min 303 W/m 12,9 km/h (3 Bft) 100,00 %
04.12.2018 12:28 10,0 C 18,3 C 8,9 C 82 % 1019,2 hPa 0,0 l/m 2 min 0 min 304 W/m 9,7 km/h (2 Bft) 100,00 %
04.12.2018 12:30 10,1 C 18,3 C 8,3 C 82 % 1019,2 hPa 0,0 l/m 2 min 0 min 310 W/m 12,9 km/h (3 Bft) 100,00 %
04.12.2018 12:32 10,1 C 17,8 C 8,3 C 81 % 1019,3 hPa 0,0 l/m 2 min 0 min 321 W/m 9,7 km/h (2 Bft) 100,00 %
04.12.2018 12:34 10,2 C 17,8 C 8,3 C 81 % 1019,3 hPa 0,0 l/m 2 min 0 min 323 W/m 6,4 km/h (2 Bft) 100,00 %
04.12.2018 12:36 10,2 C 17,8 C 8,3 C 81 % 1019,3 hPa 0,0 l/m 2 min 0 min 317 W/m 6,4 km/h (2 Bft) 100,00 %
04.12.2018 12:38 10,3 C 17,2 C 8,3 C 81 % 1019,3 hPa 0,0 l/m 2 min 0 min 277 W/m 9,7 km/h (2 Bft) 100,00 %
04.12.2018 12:40 10,3 C 15,0 C 7,8 C 80 % 1019,4 hPa 0,0 l/m 0 min 0 min 149 W/m 6,4 km/h (2 Bft) 100,00 %
04.12.2018 12:42 10,3 C 16,7 C 7,8 C 80 % 1019,4 hPa 0,0 l/m 2 min 0 min 261 W/m 9,7 km/h (2 Bft) 100,00 %
04.12.2018 12:44 10,4 C 17,2 C 7,8 C 80 % 1019,5 hPa 0,0 l/m 2 min 0 min 295 W/m 6,4 km/h (2 Bft) 100,00 %
04.12.2018 12:46 10,4 C 17,8 C 7,8 C 80 % 1019,4 hPa 0,0 l/m 2 min 0 min 298 W/m 12,9 km/h (3 Bft) 98,00 %
04.12.2018 12:48 10,4 C 17,8 C 7,8 C 80 % 1019,5 hPa 0,0 l/m 2 min 0 min 293 W/m 12,9 km/h (3 Bft) 100,00 %
04.12.2018 12:50 10,4 C 18,3 C 7,8 C 79 % 1019,5 hPa 0,0 l/m 2 min 0 min 291 W/m 12,9 km/h (3 Bft) 95,74 %
04.12.2018 12:52 10,5 C 18,3 C 7,8 C 79 % 1019,5 hPa 0,0 l/m 2 min 0 min 288 W/m 9,7 km/h (2 Bft) 100,00 %
04.12.2018 12:54 10,5 C 18,3 C 7,8 C 79 % 1019,5 hPa 0,0 l/m 2 min 0 min 286 W/m 12,9 km/h (3 Bft) 100,00 %
04.12.2018 12:56 10,6 C 17,8 C 7,8 C 79 % 1019,4 hPa 0,0 l/m 2 min 0 min 240 W/m 12,9 km/h (3 Bft) 100,00 %
04.12.2018 12:58 10,6 C 17,8 C 7,8 C 79 % 1019,5 hPa 0,0 l/m 2 min 0 min 287 W/m 12,9 km/h (3 Bft) 100,00 %
04.12.2018 13:00 10,6 C 18,3 C 7,8 C 79 % 1019,5 hPa 0,0 l/m 2 min 0 min 290 W/m 12,9 km/h (3 Bft) 100,00 %
04.12.2018 13:02 10,6 C 18,3 C 7,8 C 78 % 1019,5 hPa 0,0 l/m 2 min 0 min 296 W/m 12,9 km/h (3 Bft) 100,00 %
04.12.2018 13:04 10,6 C 17,8 C 7,8 C 78 % 1019,5 hPa 0,0 l/m 2 min 0 min 305 W/m 12,9 km/h (3 Bft) 100,00 %
04.12.2018 13:06 10,6 C 17,8 C 7,8 C 77 % 1019,5 hPa 0,0 l/m 2 min 0 min 299 W/m 6,4 km/h (2 Bft) 98,11 %
04.12.2018 13:08 10,6 C 17,8 C 7,8 C 77 % 1019,5 hPa 0,0 l/m 2 min 0 min 290 W/m 9,7 km/h (2 Bft) 97,14 %
04.12.2018 13:10 10,7 C 18,3 C 7,8 C 77 % 1019,5 hPa 0,0 l/m 2 min 0 min 278 W/m 6,4 km/h (2 Bft) 97,87 %
04.12.2018 13:12 10,7 C 18,3 C 7,8 C 77 % 1019,5 hPa 0,0 l/m 2 min 0 min 292 W/m 9,7 km/h (2 Bft) 95,65 %
04.12.2018 13:14 10,7 C 17,2 C 7,8 C 77 % 1019,5 hPa 0,0 l/m 2 min 0 min 294 W/m 9,7 km/h (2 Bft) 94,00 %
04.12.2018 13:16 10,7 C 16,7 C 7,8 C 77 % 1019,6 hPa 0,0 l/m 2 min 0 min 284 W/m 6,4 km/h (2 Bft) 97,87 %
04.12.2018 13:18 10,7 C 16,7 C 7,8 C 77 % 1019,5 hPa 0,0 l/m 2 min 0 min 277 W/m 16,1 km/h (3 Bft) 100,00 %
04.12.2018 13:20 10,7 C 17,2 C 7,8 C 76 % 1019,6 hPa 0,0 l/m 2 min 0 min 286 W/m 12,9 km/h (3 Bft) 95,74 %
04.12.2018 13:22 10,7 C 16,1 C 7,8 C 76 % 1019,6 hPa 0,0 l/m 2 min 0 min 222 W/m 12,9 km/h (3 Bft) 97,87 %
04.12.2018 13:24 10,6 C 15,6 C 7,8 C 76 % 1019,7 hPa 0,0 l/m 2 min 0 min 217 W/m 12,9 km/h (3 Bft) 97,83 %
04.12.2018 13:26 10,6 C 13,9 C 7,8 C 76 % 1019,6 hPa 0,0 l/m 2 min 0 min 181 W/m 9,7 km/h (2 Bft) 97,87 %
04.12.2018 13:28 10,5 C 12,2 C 7,2 C 76 % 1019,7 hPa 0,0 l/m 0 min 0 min 45 W/m 9,7 km/h (2 Bft) 97,87 %
04.12.2018 13:30 10,4 C 11,1 C 7,2 C 76 % 1019,7 hPa 0,0 l/m 0 min 0 min 53 W/m 9,7 km/h (2 Bft) 95,74 %
04.12.2018 13:32 10,4 C 10,6 C 7,2 C 76 % 1019,8 hPa 0,0 l/m 0 min 0 min 95 W/m 6,4 km/h (2 Bft) 95,74 %
04.12.2018 13:34 10,2 C 9,4 C 7,2 C 76 % 1019,9 hPa 0,0 l/m 0 min 0 min 51 W/m 6,4 km/h (2 Bft) 95,65 %
04.12.2018 13:36 10,2 C 9,4 C 7,2 C 77 % 1019,9 hPa 0,0 l/m 0 min 0 min 43 W/m 9,7 km/h (2 Bft) 95,74 %
04.12.2018 13:38 10,1 C 8,9 C 7,2 C 77 % 1019,9 hPa 0,0 l/m 0 min 0 min 41 W/m 3,2 km/h (1 Bft) 95,74 %
04.12.2018 13:40 10,0 C 8,9 C 6,7 C 77 % 1019,9 hPa 0,0 l/m 0 min 0 min 43 W/m 6,4 km/h (2 Bft) 95,74 %
04.12.2018 13:42 9,9 C 8,3 C 6,7 C 77 % 1019,9 hPa 0,0 l/m 0 min 0 min 46 W/m 3,2 km/h (1 Bft) 95,74 %
04.12.2018 13:44 9,8 C 8,3 C 6,7 C 78 % 1019,9 hPa 0,0 l/m 0 min 0 min 49 W/m 6,4 km/h (2 Bft) 93,62 %
04.12.2018 13:46 9,7 C 8,3 C 6,7 C 78 % 1020,0 hPa 0,0 l/m 0 min 0 min 51 W/m 6,4 km/h (2 Bft) 95,65 %
04.12.2018 13:48 9,7 C 8,3 C 6,7 C 78 % 1020,0 hPa 0,0 l/m 0 min 0 min 57 W/m 3,2 km/h (1 Bft) 97,87 %
04.12.2018 13:50 9,6 C 7,8 C 6,7 C 78 % 1020,0 hPa 0,0 l/m 0 min 0 min 63 W/m 3,2 km/h (1 Bft) 97,87 %
04.12.2018 13:52 9,5 C 8,3 C 6,7 C 78 % 1020,0 hPa 0,0 l/m 0 min 0 min 63 W/m 3,2 km/h (1 Bft) 97,87 %
04.12.2018 13:54 9,5 C 7,8 C 6,7 C 79 % 1020,0 hPa 0,0 l/m 0 min 0 min 53 W/m 6,4 km/h (2 Bft) 97,87 %
04.12.2018 13:56 9,4 C 7,8 C 6,7 C 79 % 1020,1 hPa 0,0 l/m 0 min 0 min 47 W/m 3,2 km/h (1 Bft) 95,74 %
04.12.2018 14:05 9,2 C 11,7 C 6,7 C 80 % 1020,1 hPa 0,0 l/m 0 min 0 min 82 W/m 6,4 km/h (2 Bft) 100,00 %
04.12.2018 14:08 9,1 C 13,9 C 7,2 C 81 % 1020,1 hPa 0,0 l/m 3 min 0 min 252 W/m 6,4 km/h (2 Bft) 96,15 %
04.12.2018 14:10 9,1 C 13,9 C 7,2 C 81 % 1020,1 hPa 0,0 l/m 2 min 0 min 239 W/m 6,4 km/h (2 Bft) 97,87 %
04.12.2018 14:12 9,1 C 15,0 C 7,2 C 81 % 1020,1 hPa 0,0 l/m 2 min 0 min 240 W/m 6,4 km/h (2 Bft) 97,62 %
04.12.2018 14:14 9,2 C 13,9 C 7,2 C 81 % 1020,2 hPa 0,0 l/m 2 min 0 min 213 W/m 12,9 km/h (3 Bft) 97,96 %
04.12.2018 14:16 9,2 C 13,3 C 7,2 C 81 % 1020,2 hPa 0,0 l/m 2 min 0 min 255 W/m 9,7 km/h (2 Bft) 97,96 %
04.12.2018 14:18 9,2 C 13,3 C 7,8 C 81 % 1020,2 hPa 0,0 l/m 2 min 0 min 275 W/m 6,4 km/h (2 Bft) 95,74 %
04.12.2018 14:20 9,2 C 11,7 C 7,8 C 80 % 1020,3 hPa 0,0 l/m 2 min 0 min 180 W/m 6,4 km/h (2 Bft) 100,00 %
04.12.2018 14:22 9,2 C 12,2 C 7,8 C 80 % 1020,3 hPa 0,0 l/m 2 min 0 min 185 W/m 6,4 km/h (2 Bft) 100,00 %
04.12.2018 14:24 9,3 C 13,9 C 8,3 C 80 % 1020,3 hPa 0,0 l/m 2 min 0 min 215 W/m 9,7 km/h (2 Bft) 100,00 %
04.12.2018 14:26 9,3 C 14,4 C 8,3 C 80 % 1020,3 hPa 0,0 l/m 2 min 0 min 212 W/m 6,4 km/h (2 Bft) 95,74 %
04.12.2018 14:28 9,4 C 15,0 C 8,9 C 80 % 1020,4 hPa 0,0 l/m 2 min 0 min 209 W/m 9,7 km/h (2 Bft) 97,87 %
04.12.2018 14:30 9,4 C 15,0 C 8,9 C 81 % 1020,3 hPa 0,0 l/m 2 min 0 min 207 W/m 6,4 km/h (2 Bft) 97,87 %
04.12.2018 14:32 9,5 C 14,4 C 8,9 C 81 % 1020,4 hPa 0,0 l/m 2 min 0 min 204 W/m 9,7 km/h (2 Bft) 97,87 %
04.12.2018 14:34 9,5 C 12,8 C 8,9 C 80 % 1020,4 hPa 0,0 l/m 2 min 0 min 258 W/m 6,4 km/h (2 Bft) 100,00 %
04.12.2018 14:36 9,6 C 11,7 C 8,9 C 80 % 1020,4 hPa 0,0 l/m 2 min 0 min 133 W/m 9,7 km/h (2 Bft) 97,87 %
04.12.2018 14:38 9,6 C 11,1 C 8,9 C 80 % 1020,5 hPa 0,0 l/m 2 min 0 min 120 W/m 9,7 km/h (2 Bft) 97,87 %
04.12.2018 14:40 9,6 C 10,0 C 8,3 C 80 % 1020,5 hPa 0,0 l/m 2 min 0 min 118 W/m 6,4 km/h (2 Bft) 100,00 %
04.12.2018 14:42 9,6 C 10,0 C 8,3 C 79 % 1020,6 hPa 0,0 l/m 2 min 0 min 118 W/m 9,7 km/h (2 Bft) 97,22 %
04.12.2018 14:44 9,6 C 9,4 C 8,3 C 79 % 1020,7 hPa 0,0 l/m 2 min 0 min 121 W/m 9,7 km/h (2 Bft) 97,87 %
04.12.2018 14:46 9,6 C 9,4 C 8,3 C 79 % 1020,7 hPa 0,0 l/m 2 min 0 min 116 W/m 6,4 km/h (2 Bft) 97,87 %
04.12.2018 14:48 9,6 C 9,4 C 8,3 C 79 % 1020,8 hPa 0,0 l/m 2 min 0 min 107 W/m 6,4 km/h (2 Bft) 97,87 %
04.12.2018 14:50 9,5 C 9,4 C 8,3 C 79 % 1020,7 hPa 0,0 l/m 0 min 0 min 86 W/m 6,4 km/h (2 Bft) 100,00 %
04.12.2018 14:52 9,5 C 8,9 C 7,8 C 80 % 1020,9 hPa 0,0 l/m 0 min 0 min 66 W/m 6,4 km/h (2 Bft) 100,00 %
04.12.2018 14:54 9,4 C 8,9 C 7,8 C 80 % 1020,8 hPa 0,0 l/m 0 min 0 min 50 W/m 9,7 km/h (2 Bft) 95,74 %
04.12.2018 14:56 9,4 C 8,9 C 7,8 C 80 % 1020,8 hPa 0,0 l/m 0 min 0 min 43 W/m 3,2 km/h (1 Bft) 97,83 %
04.12.2018 14:58 9,4 C 8,3 C 7,2 C 80 % 1020,9 hPa 0,0 l/m 0 min 0 min 39 W/m 6,4 km/h (2 Bft) 93,62 %
04.12.2018 15:00 9,3 C 8,3 C 7,2 C 80 % 1020,9 hPa 0,0 l/m 0 min 0 min 37 W/m 3,2 km/h (1 Bft) 97,87 %
04.12.2018 15:02 9,3 C 7,8 C 7,2 C 80 % 1021,0 hPa 0,0 l/m 0 min 0 min 39 W/m 6,4 km/h (2 Bft) 97,87 %
04.12.2018 15:04 9,3 C 7,8 C 6,7 C 80 % 1021,0 hPa 0,0 l/m 0 min 0 min 40 W/m 6,4 km/h (2 Bft) 97,87 %
04.12.2018 15:06 9,2 C 7,8 C 6,7 C 80 % 1021,0 hPa 0,0 l/m 0 min 0 min 40 W/m 6,4 km/h (2 Bft) 98,28 %
04.12.2018 15:08 9,2 C 7,8 C 6,7 C 80 % 1021,0 hPa 0,0 l/m 0 min 0 min 40 W/m 6,4 km/h (2 Bft) 94,29 %
04.12.2018 15:10 9,1 C 7,8 C 6,7 C 80 % 1021,1 hPa 0,0 l/m 0 min 0 min 44 W/m 3,2 km/h (1 Bft) 97,87 %
04.12.2018 15:12 9,1 C 7,8 C 6,7 C 80 % 1021,0 hPa 0,0 l/m 0 min 0 min 43 W/m 3,2 km/h (1 Bft) 97,87 %
04.12.2018 15:14 9,0 C 7,8 C 6,7 C 80 % 1021,1 hPa 0,0 l/m 0 min 0 min 39 W/m 6,4 km/h (2 Bft) 97,87 %
04.12.2018 15:16 8,9 C 7,8 C 6,7 C 81 % 1021,1 hPa 0,0 l/m 0 min 0 min 33 W/m 3,2 km/h (1 Bft) 95,74 %
04.12.2018 15:18 8,8 C 7,8 C 6,7 C 81 % 1021,1 hPa 0,0 l/m 0 min 0 min 29 W/m 3,2 km/h (1 Bft) 97,87 %
04.12.2018 15:20 8,8 C 7,2 C 6,7 C 81 % 1021,1 hPa 0,0 l/m 0 min 0 min 26 W/m 3,2 km/h (1 Bft) 97,83 %
04.12.2018 15:22 8,8 C 7,2 C 6,1 C 81 % 1021,1 hPa 0,0 l/m 0 min 0 min 25 W/m 3,2 km/h (1 Bft) 97,87 %
04.12.2018 15:24 8,7 C 7,2 C 6,1 C 81 % 1021,1 hPa 0,0 l/m 0 min 0 min 22 W/m 3,2 km/h (1 Bft) 97,87 %
04.12.2018 15:26 8,7 C 7,2 C 6,1 C 82 % 1021,2 hPa 0,0 l/m 0 min 0 min 18 W/m 0,0 km/h (0 Bft) 97,87 %
04.12.2018 15:28 8,6 C 6,7 C 6,1 C 82 % 1021,2 hPa 0,0 l/m 0 min 0 min 18 W/m 3,2 km/h (1 Bft) 93,62 %
04.12.2018 15:30 8,6 C 6,7 C 5,6 C 82 % 1021,2 hPa 0,0 l/m 0 min 0 min 19 W/m 3,2 km/h (1 Bft) 97,87 %
04.12.2018 15:32 8,5 C 6,7 C 5,6 C 82 % 1021,2 hPa 0,0 l/m 0 min 0 min 19 W/m 0,0 km/h (0 Bft) 97,83 %
04.12.2018 15:34 8,5 C 6,7 C 5,6 C 82 % 1021,2 hPa 0,0 l/m 0 min 0 min 18 W/m 3,2 km/h (1 Bft) 97,87 %
04.12.2018 15:36 8,4 C 6,1 C 5,6 C 82 % 1021,1 hPa 0,0 l/m 0 min 0 min 16 W/m 0,0 km/h (0 Bft) 94,92 %
04.12.2018 15:38 8,4 C 6,1 C 5,6 C 82 % 1021,2 hPa 0,0 l/m 0 min 0 min 14 W/m 0,0 km/h (0 Bft) 97,87 %
04.12.2018 15:40 8,3 C 6,1 C 5,6 C 82 % 1021,2 hPa 0,0 l/m 0 min 0 min 14 W/m 0,0 km/h (0 Bft) 97,14 %
04.12.2018 15:42 8,2 C 6,1 C 5,0 C 82 % 1021,2 hPa 0,0 l/m 0 min 0 min 12 W/m 0,0 km/h (0 Bft) 97,87 %
04.12.2018 15:44 8,2 C 6,1 C 5,0 C 82 % 1021,2 hPa 0,0 l/m 0 min 0 min 12 W/m 0,0 km/h (0 Bft) 100,00 %
04.12.2018 15:46 8,1 C 6,1 C 5,0 C 82 % 1021,3 hPa 0,0 l/m 0 min 0 min 12 W/m 0,0 km/h (0 Bft) 100,00 %
04.12.2018 15:48 8,1 C 6,1 C 5,0 C 82 % 1021,3 hPa 0,0 l/m 0 min 0 min 12 W/m 0,0 km/h (0 Bft) 100,00 %
04.12.2018 15:50 8,0 C 6,1 C 5,0 C 82 % 1021,5 hPa 0,0 l/m 0 min 0 min 14 W/m 0,0 km/h (0 Bft) 97,87 %
04.12.2018 15:52 7,9 C 6,1 C 5,0 C 82 % 1021,5 hPa 0,0 l/m 0 min 0 min 17 W/m 0,0 km/h (0 Bft) 97,87 %
04.12.2018 15:54 7,9 C 6,1 C 5,0 C 82 % 1021,4 hPa 0,0 l/m 0 min 0 min 18 W/m 0,0 km/h (0 Bft) 97,83 %
04.12.2018 15:56 7,8 C 6,1 C 4,4 C 82 % 1021,4 hPa 0,0 l/m 0 min 0 min 18 W/m 3,2 km/h (1 Bft) 97,87 %
04.12.2018 15:58 7,7 C 5,6 C 4,4 C 82 % 1021,5 hPa 0,0 l/m 0 min 0 min 18 W/m 3,2 km/h (1 Bft) 97,87 %
04.12.2018 16:00 7,7 C 5,6 C 4,4 C 82 % 1021,4 hPa 0,0 l/m 0 min 0 min 18 W/m 0,0 km/h (0 Bft) 97,87 %
04.12.2018 16:02 7,6 C 5,6 C 4,4 C 82 % 1021,4 hPa 0,0 l/m 0 min 0 min 16 W/m 0,0 km/h (0 Bft) 95,74 %
04.12.2018 16:04 7,6 C 5,6 C 4,4 C 82 % 1021,5 hPa 0,0 l/m 0 min 0 min 14 W/m 0,0 km/h (0 Bft) 97,87 %
04.12.2018 16:06 7,4 C 5,6 C 4,4 C 83 % 1021,5 hPa 0,0 l/m 0 min 0 min 13 W/m 0,0 km/h (0 Bft) 96,55 %
04.12.2018 16:08 7,4 C 5,6 C 4,4 C 83 % 1021,6 hPa 0,0 l/m 0 min 0 min 11 W/m 0,0 km/h (0 Bft) 97,22 %
04.12.2018 16:10 7,4 C 5,6 C 4,4 C 83 % 1021,5 hPa 0,0 l/m 0 min 0 min 10 W/m 0,0 km/h (0 Bft) 97,87 %
04.12.2018 16:12 7,3 C 5,6 C 4,4 C 83 % 1021,6 hPa 0,0 l/m 0 min 0 min 8 W/m 0,0 km/h (0 Bft) 97,87 %
04.12.2018 16:14 7,3 C 5,6 C 4,4 C 83 % 1021,7 hPa 0,0 l/m 0 min 0 min 6 W/m 0,0 km/h (0 Bft) 97,87 %
04.12.2018 16:16 7,2 C 5,0 C 4,4 C 83 % 1021,7 hPa 0,0 l/m 0 min 0 min 5 W/m 0,0 km/h (0 Bft) 97,87 %
04.12.2018 16:18 7,1 C 5,0 C 3,9 C 83 % 1021,8 hPa 0,0 l/m 0 min 0 min 5 W/m 0,0 km/h (0 Bft) 97,83 %
04.12.2018 16:20 7,1 C 5,0 C 3,9 C 83 % 1021,7 hPa 0,0 l/m 0 min 0 min 5 W/m 0,0 km/h (0 Bft) 100,00 %
04.12.2018 16:22 7,0 C 5,0 C 3,9 C 83 % 1021,9 hPa 0,0 l/m 0 min 0 min 5 W/m 0,0 km/h (0 Bft) 93,62 %
04.12.2018 16:24 6,9 C 4,4 C 3,9 C 84 % 1021,8 hPa 0,0 l/m 0 min 0 min 5 W/m 0,0 km/h (0 Bft) 95,74 %
04.12.2018 16:26 6,8 C 4,4 C 3,9 C 84 % 1021,9 hPa 0,0 l/m 0 min 0 min 5 W/m 0,0 km/h (0 Bft) 95,74 %
04.12.2018 16:28 6,8 C 4,4 C 3,9 C 84 % 1021,9 hPa 0,0 l/m 0 min 0 min 1 W/m 0,0 km/h (0 Bft) 93,62 %
04.12.2018 16:30 6,7 C 4,4 C 3,9 C 84 % 1021,9 hPa 0,0 l/m 0 min 0 min 0 W/m 0,0 km/h (0 Bft) 95,65 %
04.12.2018 16:32 6,7 C 4,4 C 3,9 C 84 % 1021,9 hPa 0,0 l/m 0 min 0 min 0 W/m 0,0 km/h (0 Bft) 95,74 %
04.12.2018 16:34 6,6 C 4,4 C 3,9 C 84 % 1021,9 hPa 0,0 l/m 0 min 0 min 0 W/m 0,0 km/h (0 Bft) 95,74 %
04.12.2018 16:36 6,6 C 5,0 C 3,9 C 84 % 1021,9 hPa 0,0 l/m 0 min 0 min 0 W/m 0,0 km/h (0 Bft) 94,92 %
04.12.2018 16:38 6,5 C 4,4 C 3,3 C 85 % 1021,9 hPa 0,0 l/m 0 min 0 min 0 W/m 0,0 km/h (0 Bft) 94,29 %
04.12.2018 16:40 6,4 C 4,4 C 3,3 C 85 % 1021,9 hPa 0,0 l/m 0 min 0 min 0 W/m 0,0 km/h (0 Bft) 93,75 %
04.12.2018 16:42 6,4 C 5,0 C 3,3 C 85 % 1021,9 hPa 0,0 l/m 0 min 0 min 0 W/m 0,0 km/h (0 Bft) 93,48 %
04.12.2018 16:44 6,4 C 4,4 C 3,3 C 85 % 1022,0 hPa 0,0 l/m 0 min 0 min 0 W/m 0,0 km/h (0 Bft) 95,74 %
04.12.2018 16:46 6,3 C 4,4 C 3,3 C 85 % 1022,1 hPa 0,0 l/m 0 min 0 min 0 W/m 0,0 km/h (0 Bft) 97,87 %
04.12.2018 16:48 6,2 C 3,9 C 3,3 C 85 % 1022,2 hPa 0,0 l/m 0 min 0 min 0 W/m 0,0 km/h (0 Bft) 95,74 %
04.12.2018 16:50 6,2 C 3,9 C 3,3 C 85 % 1022,1 hPa 0,0 l/m 0 min 0 min 0 W/m 0,0 km/h (0 Bft) 95,74 %
04.12.2018 16:52 6,1 C 3,3 C 3,3 C 85 % 1022,2 hPa 0,0 l/m 0 min 0 min 0 W/m 0,0 km/h (0 Bft) 95,24 %
04.12.2018 16:54 6,1 C 3,3 C 3,3 C 86 % 1022,2 hPa 0,0 l/m 0 min 0 min 0 W/m 0,0 km/h (0 Bft) 93,62 %
04.12.2018 16:56 5,9 C 3,3 C 3,3 C 86 % 1022,2 hPa 0,0 l/m 0 min 0 min 0 W/m 0,0 km/h (0 Bft) 93,62 %
04.12.2018 16:58 5,9 C 3,3 C 3,3 C 86 % 1022,2 hPa 0,0 l/m 0 min 0 min 0 W/m 0,0 km/h (0 Bft) 91,30 %
04.12.2018 17:00 5,8 C 3,3 C 3,3 C 86 % 1022,2 hPa 0,0 l/m 0 min 0 min 0 W/m 0,0 km/h (0 Bft) 95,74 %
04.12.2018 17:02 5,8 C 3,3 C 2,8 C 86 % 1022,2 hPa 0,0 l/m 0 min 0 min 0 W/m 0,0 km/h (0 Bft) 95,74 %
04.12.2018 17:04 5,7 C 3,3 C 2,8 C 86 % 1022,2 hPa 0,0 l/m 0 min 0 min 0 W/m 0,0 km/h (0 Bft) 95,74 %
04.12.2018 17:06 5,7 C 3,3 C 2,8 C 86 % 1022,3 hPa 0,0 l/m 0 min 0 min 0 W/m 0,0 km/h (0 Bft) 95,74 %
04.12.2018 17:08 5,6 C 3,3 C 2,8 C 86 % 1022,3 hPa 0,0 l/m 0 min 0 min 0 W/m 0,0 km/h (0 Bft) 93,62 %
04.12.2018 17:10 5,5 C 3,3 C 2,8 C 86 % 1022,4 hPa 0,0 l/m 0 min 0 min 0 W/m 0,0 km/h (0 Bft) 93,48 %
04.12.2018 17:12 5,4 C 3,3 C 2,8 C 86 % 1022,4 hPa 0,0 l/m 0 min 0 min 0 W/m 0,0 km/h (0 Bft) 93,62 %
04.12.2018 17:14 5,4 C 3,3 C 2,8 C 86 % 1022,3 hPa 0,0 l/m 0 min 0 min 0 W/m 0,0 km/h (0 Bft) 93,62 %
04.12.2018 17:16 5,3 C 2,8 C 2,8 C 86 % 1022,5 hPa 0,0 l/m 0 min 0 min 0 W/m 0,0 km/h (0 Bft) 89,36 %
04.12.2018 17:18 5,3 C 2,8 C 2,8 C 87 % 1022,5 hPa 0,0 l/m 0 min 0 min 0 W/m 0,0 km/h (0 Bft) 93,62 %
04.12.2018 17:20 5,2 C 2,8 C 2,8 C 87 % 1022,5 hPa 0,0 l/m 0 min 0 min 0 W/m 0,0 km/h (0 Bft) 95,65 %
04.12.2018 17:22 5,2 C 2,8 C 2,8 C 87 % 1022,4 hPa 0,0 l/m 0 min 0 min 0 W/m 0,0 km/h (0 Bft) 93,62 %
04.12.2018 17:24 5,1 C 3,3 C 2,8 C 87 % 1022,5 hPa 0,0 l/m 0 min 0 min 0 W/m 3,2 km/h (1 Bft) 95,74 %
04.12.2018 17:26 5,1 C 3,3 C 2,8 C 87 % 1022,5 hPa 0,0 l/m 0 min 0 min 0 W/m 3,2 km/h (1 Bft) 95,74 %
04.12.2018 17:28 5,0 C 3,3 C 2,8 C 87 % 1022,5 hPa 0,0 l/m 0 min 0 min 0 W/m 0,0 km/h (0 Bft) 95,74 %
04.12.2018 17:30 5,0 C 2,8 C 2,8 C 87 % 1022,5 hPa 0,0 l/m 0 min 0 min 0 W/m 0,0 km/h (0 Bft) 95,74 %
04.12.2018 17:32 4,9 C 2,8 C 2,2 C 87 % 1022,4 hPa 0,0 l/m 0 min 0 min 0 W/m 0,0 km/h (0 Bft) 97,83 %
04.12.2018 17:34 4,9 C 2,8 C 2,2 C 87 % 1022,5 hPa 0,0 l/m 0 min 0 min 0 W/m 0,0 km/h (0 Bft) 95,74 %
04.12.2018 17:36 4,8 C 2,8 C 2,2 C 87 % 1022,6 hPa 0,0 l/m 0 min 0 min 0 W/m 0,0 km/h (0 Bft) 100,00 %
04.12.2018 17:38 4,8 C 2,8 C 2,2 C 87 % 1022,5 hPa 0,0 l/m 0 min 0 min 0 W/m 0,0 km/h (0 Bft) 100,00 %
04.12.2018 17:40 4,8 C 2,8 C 2,2 C 87 % 1022,5 hPa 0,0 l/m 0 min 0 min 0 W/m 0,0 km/h (0 Bft) 93,62 %
04.12.2018 17:42 4,7 C 2,2 C 2,2 C 87 % 1022,5 hPa 0,0 l/m 0 min 0 min 0 W/m 0,0 km/h (0 Bft) 97,87 %
04.12.2018 17:44 4,7 C 2,2 C 2,2 C 88 % 1022,5 hPa 0,0 l/m 0 min 0 min 0 W/m 0,0 km/h (0 Bft) 97,83 %
04.12.2018 17:46 4,6 C 2,8 C 2,2 C 88 % 1022,5 hPa 0,0 l/m 0 min 0 min 0 W/m 0,0 km/h (0 Bft) 100,00 %
04.12.2018 17:48 4,6 C 2,8 C 2,2 C 88 % 1022,5 hPa 0,0 l/m 0 min 0 min 0 W/m 0,0 km/h (0 Bft) 100,00 %
04.12.2018 17:50 4,6 C 2,8 C 2,2 C 88 % 1022,5 hPa 0,0 l/m 0 min 0 min 0 W/m 0,0 km/h (0 Bft) 95,74 %
04.12.2018 17:52 4,5 C 2,8 C 2,2 C 88 % 1022,5 hPa 0,0 l/m 0 min 0 min 0 W/m 0,0 km/h (0 Bft) 97,87 %
04.12.2018 17:54 4,4 C 3,3 C 2,2 C 88 % 1022,6 hPa 0,0 l/m 0 min 0 min 0 W/m 0,0 km/h (0 Bft) 100,00 %
04.12.2018 17:56 4,4 C 3,3 C 2,2 C 88 % 1022,6 hPa 0,0 l/m 0 min 0 min 0 W/m 0,0 km/h (0 Bft) 100,00 %
04.12.2018 17:58 4,4 C 3,3 C 2,2 C 88 % 1022,6 hPa 0,0 l/m 0 min 0 min 0 W/m 0,0 km/h (0 Bft) 100,00 %
04.12.2018 18:00 4,3 C 2,8 C 2,2 C 88 % 1022,5 hPa 0,0 l/m 0 min 0 min 0 W/m 0,0 km/h (0 Bft) 100,00 %
04.12.2018 18:02 4,3 C 2,8 C 2,2 C 88 % 1022,5 hPa 0,0 l/m 0 min 0 min 0 W/m 0,0 km/h (0 Bft) 97,87 %
04.12.2018 18:04 4,3 C 2,8 C 2,2 C 88 % 1022,5 hPa 0,0 l/m 0 min 0 min 0 W/m 0,0 km/h (0 Bft) 97,87 %
04.12.2018 18:08 4,2 C 2,2 C 2,2 C 88 % 1022,6 hPa 0,0 l/m 0 min 0 min 0 W/m 0,0 km/h (0 Bft) 100,00 %
04.12.2018 18:10 4,2 C 2,2 C 2,2 C 88 % 1022,5 hPa 0,0 l/m 0 min 0 min 0 W/m 0,0 km/h (0 Bft) 100,00 %
04.12.2018 18:12 4,2 C 2,8 C 2,2 C 88 % 1022,5 hPa 0,0 l/m 0 min 0 min 0 W/m 0,0 km/h (0 Bft) 100,00 %
04.12.2018 18:14 4,2 C 2,8 C 2,2 C 88 % 1022,6 hPa 0,0 l/m 0 min 0 min 0 W/m 0,0 km/h (0 Bft) 97,87 %
04.12.2018 18:16 4,1 C 2,8 C 2,2 C 88 % 1022,6 hPa 0,0 l/m 0 min 0 min 0 W/m 0,0 km/h (0 Bft) 100,00 %
04.12.2018 18:18 4,1 C 2,8 C 2,2 C 88 % 1022,6 hPa 0,0 l/m 0 min 0 min 0 W/m 0,0 km/h (0 Bft) 100,00 %
04.12.2018 18:20 4,1 C 3,3 C 2,2 C 88 % 1022,7 hPa 0,0 l/m 0 min 0 min 0 W/m 0,0 km/h (0 Bft) 97,87 %
04.12.2018 18:22 4,0 C 3,3 C 2,2 C 88 % 1022,7 hPa 0,0 l/m 0 min 0 min 0 W/m 3,2 km/h (1 Bft) 100,00 %
04.12.2018 18:24 4,0 C 3,9 C 2,2 C 89 % 1022,7 hPa 0,0 l/m 0 min 0 min 0 W/m 3,2 km/h (1 Bft) 100,00 %
04.12.2018 18:26 4,0 C 3,9 C 2,2 C 89 % 1022,7 hPa 0,0 l/m 0 min 0 min 0 W/m 0,0 km/h (0 Bft) 97,87 %
04.12.2018 18:28 4,0 C 3,3 C 2,2 C 89 % 1022,8 hPa 0,0 l/m 0 min 0 min 0 W/m 0,0 km/h (0 Bft) 100,00 %
04.12.2018 18:30 4,0 C 3,3 C 2,2 C 89 % 1022,8 hPa 0,0 l/m 0 min 0 min 0 W/m 0,0 km/h (0 Bft) 100,00 %
04.12.2018 18:32 3,9 C 2,8 C 2,2 C 89 % 1022,8 hPa 0,0 l/m 0 min 0 min 0 W/m 0,0 km/h (0 Bft) 100,00 %
04.12.2018 18:34 3,9 C 2,8 C 2,2 C 89 % 1022,7 hPa 0,0 l/m 0 min 0 min 0 W/m 0,0 km/h (0 Bft) 100,00 %
04.12.2018 18:36 3,9 C 2,8 C 2,2 C 89 % 1022,8 hPa 0,0 l/m 0 min 0 min 0 W/m 0,0 km/h (0 Bft) 97,87 %
04.12.2018 18:38 3,9 C 2,8 C 2,2 C 89 % 1022,7 hPa 0,0 l/m 0 min 0 min 0 W/m 0,0 km/h (0 Bft) 100,00 %
04.12.2018 18:40 3,9 C 2,8 C 2,2 C 89 % 1022,8 hPa 0,0 l/m 0 min 0 min 0 W/m 0,0 km/h (0 Bft) 100,00 %
04.12.2018 18:42 3,9 C 2,8 C 2,2 C 90 % 1022,8 hPa 0,0 l/m 0 min 0 min 0 W/m 0,0 km/h (0 Bft) 100,00 %
04.12.2018 18:44 3,9 C 2,8 C 2,2 C 90 % 1022,8 hPa 0,0 l/m 0 min 0 min 0 W/m 0,0 km/h (0 Bft) 97,87 %
04.12.2018 18:46 3,9 C 2,8 C 2,2 C 90 % 1022,8 hPa 0,0 l/m 0 min 0 min 0 W/m 0,0 km/h (0 Bft) 100,00 %
04.12.2018 18:48 3,8 C 2,8 C 2,2 C 90 % 1022,9 hPa 0,0 l/m 0 min 0 min 0 W/m 0,0 km/h (0 Bft) 97,87 %
04.12.2018 18:50 3,8 C 2,8 C 2,2 C 90 % 1022,9 hPa 0,0 l/m 0 min 0 min 0 W/m 0,0 km/h (0 Bft) 97,87 %
04.12.2018 18:52 3,8 C 2,2 C 2,2 C 90 % 1022,9 hPa 0,0 l/m 0 min 0 min 0 W/m 0,0 km/h (0 Bft) 97,87 %
04.12.2018 18:54 3,8 C 2,8 C 2,2 C 90 % 1022,9 hPa 0,0 l/m 0 min 0 min 0 W/m 0,0 km/h (0 Bft) 97,83 %
04.12.2018 18:56 3,8 C 2,8 C 2,2 C 90 % 1022,9 hPa 0,0 l/m 0 min 0 min 0 W/m 0,0 km/h (0 Bft) 97,87 %
04.12.2018 18:58 3,8 C 2,8 C 2,2 C 90 % 1022,9 hPa 0,0 l/m 0 min 0 min 0 W/m 0,0 km/h (0 Bft) 93,62 %
04.12.2018 19:00 3,7 C 2,2 C 2,2 C 90 % 1022,9 hPa 0,0 l/m 0 min 0 min 0 W/m 0,0 km/h (0 Bft) 97,87 %
04.12.2018 19:02 3,7 C 2,2 C 2,2 C 90 % 1023,0 hPa 0,0 l/m 0 min 0 min 0 W/m 0,0 km/h (0 Bft) 97,87 %
04.12.2018 19:04 3,7 C 2,2 C 2,2 C 90 % 1023,0 hPa 0,0 l/m 0 min 0 min 0 W/m 0,0 km/h (0 Bft) 97,87 %
04.12.2018 19:06 3,7 C 2,2 C 2,2 C 90 % 1023,0 hPa 0,0 l/m 0 min 0 min 0 W/m 0,0 km/h (0 Bft) 97,83 %
04.12.2018 19:08 3,6 C 2,8 C 2,2 C 90 % 1023,0 hPa 0,0 l/m 0 min 0 min 0 W/m 0,0 km/h (0 Bft) 97,87 %
04.12.2018 19:10 3,6 C 2,8 C 2,2 C 90 % 1023,0 hPa 0,0 l/m 0 min 0 min 0 W/m 0,0 km/h (0 Bft) 97,87 %
04.12.2018 19:12 3,6 C 2,8 C 2,2 C 90 % 1023,0 hPa 0,0 l/m 0 min 0 min 0 W/m 0,0 km/h (0 Bft) 97,87 %
04.12.2018 19:14 3,6 C 3,3 C 2,2 C 90 % 1023,0 hPa 0,0 l/m 0 min 0 min 0 W/m 3,2 km/h (1 Bft) 97,87 %
04.12.2018 19:16 3,6 C 3,3 C 2,2 C 91 % 1023,1 hPa 0,0 l/m 0 min 0 min 0 W/m 3,2 km/h (1 Bft) 97,87 %
04.12.2018 19:18 3,5 C 3,3 C 2,2 C 91 % 1023,1 hPa 0,0 l/m 0 min 0 min 0 W/m 0,0 km/h (0 Bft) 100,00 %
04.12.2018 19:20 3,5 C 2,8 C 2,2 C 91 % 1023,1 hPa 0,0 l/m 0 min 0 min 0 W/m 0,0 km/h (0 Bft) 100,00 %
04.12.2018 19:22 3,5 C 2,8 C 2,2 C 91 % 1023,1 hPa 0,0 l/m 0 min 0 min 0 W/m 0,0 km/h (0 Bft) 100,00 %
04.12.2018 19:24 3,5 C 2,8 C 2,2 C 91 % 1023,1 hPa 0,0 l/m 0 min 0 min 0 W/m 0,0 km/h (0 Bft) 100,00 %
04.12.2018 19:26 3,4 C 2,8 C 1,7 C 91 % 1023,1 hPa 0,0 l/m 0 min 0 min 0 W/m 0,0 km/h (0 Bft) 97,87 %
04.12.2018 19:28 3,4 C 2,2 C 1,7 C 91 % 1023,1 hPa 0,0 l/m 0 min 0 min 0 W/m 0,0 km/h (0 Bft) 97,83 %
04.12.2018 19:30 3,4 C 2,2 C 1,7 C 91 % 1023,1 hPa 0,0 l/m 0 min 0 min 0 W/m 0,0 km/h (0 Bft) 100,00 %
04.12.2018 19:32 3,4 C 2,2 C 1,7 C 91 % 1023,1 hPa 0,0 l/m 0 min 0 min 0 W/m 0,0 km/h (0 Bft) 97,87 %
04.12.2018 19:34 3,4 C 2,2 C 1,7 C 91 % 1023,1 hPa 0,0 l/m 0 min 0 min 0 W/m 0,0 km/h (0 Bft) 100,00 %
04.12.2018 19:36 3,4 C 2,2 C 1,7 C 91 % 1023,1 hPa 0,0 l/m 0 min 0 min 0 W/m 0,0 km/h (0 Bft) 100,00 %
04.12.2018 19:38 3,4 C 2,2 C 1,7 C 91 % 1023,2 hPa 0,0 l/m 0 min 0 min 0 W/m 0,0 km/h (0 Bft) 100,00 %
04.12.2018 19:40 3,4 C 2,2 C 1,7 C 91 % 1023,2 hPa 0,0 l/m 0 min 0 min 0 W/m 0,0 km/h (0 Bft) 100,00 %
04.12.2018 19:42 3,4 C 2,2 C 1,7 C 91 % 1023,2 hPa 0,0 l/m 0 min 0 min 0 W/m 0,0 km/h (0 Bft) 100,00 %
04.12.2018 19:44 3,3 C 2,2 C 1,7 C 91 % 1023,2 hPa 0,0 l/m 0 min 0 min 0 W/m 0,0 km/h (0 Bft) 97,87 %
04.12.2018 19:46 3,3 C 2,2 C 1,7 C 91 % 1023,3 hPa 0,0 l/m 0 min 0 min 0 W/m 0,0 km/h (0 Bft) 100,00 %
04.12.2018 19:48 3,3 C 2,2 C 1,7 C 91 % 1023,3 hPa 0,0 l/m 0 min 0 min 0 W/m 0,0 km/h (0 Bft) 100,00 %
04.12.2018 19:50 3,3 C 2,2 C 1,7 C 91 % 1023,3 hPa 0,0 l/m 0 min 0 min 0 W/m 0,0 km/h (0 Bft) 97,87 %
04.12.2018 19:52 3,3 C 2,2 C 1,7 C 91 % 1023,3 hPa 0,0 l/m 0 min 0 min 0 W/m 0,0 km/h (0 Bft) 95,65 %
04.12.2018 19:54 3,3 C 1,7 C 1,7 C 91 % 1023,4 hPa 0,0 l/m 0 min 0 min 0 W/m 0,0 km/h (0 Bft) 97,87 %
04.12.2018 19:56 3,2 C 1,7 C 1,7 C 91 % 1023,3 hPa 0,0 l/m 0 min 0 min 0 W/m 0,0 km/h (0 Bft) 97,87 %
04.12.2018 19:58 3,2 C 2,2 C 1,7 C 91 % 1023,3 hPa 0,0 l/m 0 min 0 min 0 W/m 0,0 km/h (0 Bft) 97,87 %
04.12.2018 20:00 3,2 C 2,2 C 1,7 C 91 % 1023,3 hPa 0,0 l/m 0 min 0 min 0 W/m 0,0 km/h (0 Bft) 97,87 %
04.12.2018 20:02 3,2 C 2,2 C 1,7 C 92 % 1023,3 hPa 0,0 l/m 0 min 0 min 0 W/m 0,0 km/h (0 Bft) 97,92 %
04.12.2018 20:04 3,2 C 2,2 C 1,7 C 92 % 1023,3 hPa 0,0 l/m 0 min 0 min 0 W/m 0,0 km/h (0 Bft) 97,83 %
04.12.2018 20:06 3,2 C 2,2 C 1,7 C 92 % 1023,4 hPa 0,0 l/m 0 min 0 min 0 W/m 0,0 km/h (0 Bft) 97,87 %
04.12.2018 20:08 3,1 C 2,2 C 1,7 C 92 % 1023,4 hPa 0,0 l/m 0 min 0 min 0 W/m 0,0 km/h (0 Bft) 93,62 %
04.12.2018 20:10 3,1 C 2,2 C 1,7 C 92 % 1023,5 hPa 0,0 l/m 0 min 0 min 0 W/m 0,0 km/h (0 Bft) 97,87 %
04.12.2018 20:12 3,1 C 2,2 C 1,7 C 92 % 1023,4 hPa 0,0 l/m 0 min 0 min 0 W/m 0,0 km/h (0 Bft) 95,74 %
04.12.2018 20:14 3,1 C 1,7 C 1,7 C 92 % 1023,4 hPa 0,0 l/m 0 min 0 min 0 W/m 0,0 km/h (0 Bft) 100,00 %
04.12.2018 20:16 3,1 C 1,7 C 1,7 C 92 % 1023,4 hPa 0,0 l/m 0 min 0 min 0 W/m 0,0 km/h (0 Bft) 95,74 %
04.12.2018 20:18 3,1 C 1,7 C 1,7 C 92 % 1023,4 hPa 0,0 l/m 0 min 0 min 0 W/m 0,0 km/h (0 Bft) 97,87 %
04.12.2018 20:20 3,0 C 2,2 C 1,7 C 92 % 1023,4 hPa 0,0 l/m 0 min 0 min 0 W/m 3,2 km/h (1 Bft) 97,87 %
04.12.2018 20:22 3,0 C 2,2 C 1,7 C 92 % 1023,4 hPa 0,0 l/m 0 min 0 min 0 W/m 6,4 km/h (2 Bft) 97,87 %
04.12.2018 20:24 3,0 C 2,2 C 1,7 C 92 % 1023,5 hPa 0,0 l/m 0 min 0 min 0 W/m 0,0 km/h (0 Bft) 95,74 %
04.12.2018 20:26 3,0 C 2,2 C 1,7 C 92 % 1023,6 hPa 0,0 l/m 0 min 0 min 0 W/m 0,0 km/h (0 Bft) 91,30 %
04.12.2018 20:28 3,0 C 2,2 C 1,7 C 92 % 1023,5 hPa 0,0 l/m 0 min 0 min 0 W/m 0,0 km/h (0 Bft) 95,74 %
04.12.2018 20:30 3,0 C 1,7 C 1,7 C 92 % 1023,6 hPa 0,0 l/m 0 min 0 min 0 W/m 0,0 km/h (0 Bft) 97,87 %
04.12.2018 20:32 3,0 C 1,7 C 1,7 C 92 % 1023,6 hPa 0,0 l/m 0 min 0 min 0 W/m 0,0 km/h (0 Bft) 95,74 %
04.12.2018 20:34 3,0 C 1,7 C 1,7 C 92 % 1023,6 hPa 0,0 l/m 0 min 0 min 0 W/m 0,0 km/h (0 Bft) 95,74 %
04.12.2018 20:36 2,9 C 1,7 C 1,1 C 92 % 1023,5 hPa 0,0 l/m 0 min 0 min 0 W/m 0,0 km/h (0 Bft) 93,62 %
04.12.2018 20:38 2,9 C 1,7 C 1,1 C 92 % 1023,6 hPa 0,0 l/m 0 min 0 min 0 W/m 0,0 km/h (0 Bft) 93,48 %
04.12.2018 20:40 2,9 C 1,7 C 1,1 C 92 % 1023,6 hPa 0,0 l/m 0 min 0 min 0 W/m 0,0 km/h (0 Bft) 93,62 %
04.12.2018 20:42 2,9 C 1,1 C 1,1 C 92 % 1023,6 hPa 0,0 l/m 0 min 0 min 0 W/m 0,0 km/h (0 Bft) 93,62 %
04.12.2018 20:44 2,9 C 1,7 C 1,1 C 92 % 1023,6 hPa 0,0 l/m 0 min 0 min 0 W/m 0,0 km/h (0 Bft) 93,62 %
04.12.2018 20:46 2,9 C 1,7 C 1,1 C 92 % 1023,6 hPa 0,0 l/m 0 min 0 min 0 W/m 0,0 km/h (0 Bft) 95,74 %
04.12.2018 20:48 2,9 C 2,2 C 1,1 C 92 % 1023,8 hPa 0,0 l/m 0 min 0 min 0 W/m 3,2 km/h (1 Bft) 93,62 %
04.12.2018 20:50 2,9 C 2,2 C 1,1 C 92 % 1023,7 hPa 0,0 l/m 0 min 0 min 0 W/m 3,2 km/h (1 Bft) 95,65 %
04.12.2018 20:52 2,9 C 2,2 C 1,1 C 92 % 1023,7 hPa 0,0 l/m 0 min 0 min 0 W/m 3,2 km/h (1 Bft) 94,00 %
04.12.2018 20:54 2,9 C 2,2 C 1,1 C 93 % 1023,8 hPa 0,0 l/m 0 min 0 min 0 W/m 0,0 km/h (0 Bft) 95,74 %
04.12.2018 20:56 2,9 C 2,2 C 1,1 C 93 % 1023,8 hPa 0,0 l/m 0 min 0 min 0 W/m 0,0 km/h (0 Bft) 93,62 %
04.12.2018 20:58 2,8 C 1,7 C 1,1 C 93 % 1023,8 hPa 0,0 l/m 0 min 0 min 0 W/m 0,0 km/h (0 Bft) 95,65 %
04.12.2018 21:00 2,8 C 1,7 C 1,1 C 93 % 1023,8 hPa 0,0 l/m 0 min 0 min 0 W/m 0,0 km/h (0 Bft) 93,62 %
04.12.2018 21:02 2,8 C 2,2 C 1,1 C 93 % 1023,9 hPa 0,0 l/m 0 min 0 min 0 W/m 6,4 km/h (2 Bft) 95,74 %
04.12.2018 21:04 2,8 C 2,2 C 1,7 C 93 % 1023,9 hPa 0,0 l/m 0 min 0 min 0 W/m 6,4 km/h (2 Bft) 95,74 %
04.12.2018 21:06 2,8 C 2,2 C 1,7 C 93 % 1023,9 hPa 0,0 l/m 0 min 0 min 0 W/m 3,2 km/h (1 Bft) 97,87 %
04.12.2018 21:08 2,8 C 2,2 C 1,7 C 93 % 1023,9 hPa 0,0 l/m 0 min 0 min 0 W/m 0,0 km/h (0 Bft) 97,87 %
04.12.2018 21:10 2,8 C 2,2 C 1,1 C 93 % 1023,9 hPa 0,0 l/m 0 min 0 min 0 W/m 3,2 km/h (1 Bft) 97,87 %
04.12.2018 21:12 2,8 C 2,2 C 1,1 C 93 % 1024,0 hPa 0,0 l/m 0 min 0 min 0 W/m 6,4 km/h (2 Bft) 95,65 %
04.12.2018 21:14 2,8 C 2,2 C 1,1 C 93 % 1024,0 hPa 0,0 l/m 0 min 0 min 0 W/m 0,0 km/h (0 Bft) 97,87 %
04.12.2018 21:16 2,8 C 2,2 C 1,1 C 93 % 1023,9 hPa 0,0 l/m 0 min 0 min 0 W/m 3,2 km/h (1 Bft) 97,87 %
04.12.2018 21:18 2,8 C 2,2 C 1,1 C 93 % 1024,0 hPa 0,0 l/m 0 min 0 min 0 W/m 3,2 km/h (1 Bft) 97,87 %
04.12.2018 21:20 2,8 C 1,7 C 1,1 C 93 % 1024,0 hPa 0,0 l/m 0 min 0 min 0 W/m 0,0 km/h (0 Bft) 97,87 %
04.12.2018 21:22 2,8 C 1,7 C 1,1 C 93 % 1024,1 hPa 0,0 l/m 0 min 0 min 0 W/m 0,0 km/h (0 Bft) 97,87 %
04.12.2018 21:24 2,8 C 1,7 C 1,1 C 93 % 1024,1 hPa 0,0 l/m 0 min 0 min 0 W/m 0,0 km/h (0 Bft) 97,83 %
04.12.2018 21:26 2,8 C 1,7 C 1,1 C 93 % 1024,1 hPa 0,0 l/m 0 min 0 min 0 W/m 0,0 km/h (0 Bft) 97,87 %
04.12.2018 21:28 2,8 C 1,7 C 1,1 C 93 % 1024,0 hPa 0,0 l/m 0 min 0 min 0 W/m 0,0 km/h (0 Bft) 97,87 %
04.12.2018 21:30 2,7 C 1,1 C 1,1 C 93 % 1024,1 hPa 0,0 l/m 0 min 0 min 0 W/m 0,0 km/h (0 Bft) 97,87 %
04.12.2018 21:32 2,7 C 1,1 C 1,1 C 93 % 1024,1 hPa 0,0 l/m 0 min 0 min 0 W/m 0,0 km/h (0 Bft) 97,87 %
04.12.2018 21:34 2,7 C 1,1 C 1,1 C 93 % 1024,2 hPa 0,0 l/m 0 min 0 min 0 W/m 0,0 km/h (0 Bft) 97,87 %
04.12.2018 21:36 2,7 C 1,1 C 1,1 C 93 % 1024,2 hPa 0,0 l/m 0 min 0 min 0 W/m 0,0 km/h (0 Bft) 95,65 %
04.12.2018 21:38 2,7 C 1,1 C 1,1 C 93 % 1024,3 hPa 0,0 l/m 0 min 0 min 0 W/m 0,0 km/h (0 Bft) 97,87 %
04.12.2018 21:40 2,7 C 1,1 C 0,6 C 93 % 1024,3 hPa 0,0 l/m 0 min 0 min 0 W/m 0,0 km/h (0 Bft) 97,87 %
04.12.2018 21:42 2,6 C 1,1 C 0,6 C 93 % 1024,3 hPa 0,0 l/m 0 min 0 min 0 W/m 0,0 km/h (0 Bft) 95,74 %
04.12.2018 21:44 2,6 C 1,1 C 0,6 C 93 % 1024,3 hPa 0,0 l/m 0 min 0 min 0 W/m 0,0 km/h (0 Bft) 100,00 %
04.12.2018 21:46 2,6 C 1,1 C 0,6 C 93 % 1024,3 hPa 0,0 l/m 0 min 0 min 0 W/m 0,0 km/h (0 Bft) 97,92 %
04.12.2018 21:48 2,6 C 0,6 C 0,6 C 93 % 1024,4 hPa 0,0 l/m 0 min 0 min 0 W/m 0,0 km/h (0 Bft) 100,00 %
04.12.2018 21:50 2,6 C 0,6 C 0,6 C 93 % 1024,3 hPa 0,0 l/m 0 min 0 min 0 W/m 0,0 km/h (0 Bft) 100,00 %
04.12.2018 21:52 2,5 C 0,6 C 0,6 C 93 % 1024,4 hPa 0,0 l/m 0 min 0 min 0 W/m 0,0 km/h (0 Bft) 95,74 %
04.12.2018 21:54 2,5 C 0,6 C 0,6 C 93 % 1024,4 hPa 0,0 l/m 0 min 0 min 0 W/m 0,0 km/h (0 Bft) 100,00 %
04.12.2018 21:56 2,4 C 0,6 C 0,6 C 93 % 1024,4 hPa 0,0 l/m 0 min 0 min 0 W/m 3,2 km/h (1 Bft) 97,87 %
04.12.2018 21:58 2,4 C 0,6 C 0,6 C 93 % 1024,5 hPa 0,0 l/m 0 min 0 min 0 W/m 3,2 km/h (1 Bft) 100,00 %
04.12.2018 22:00 2,4 C 0,6 C 0,6 C 93 % 1024,4 hPa 0,0 l/m 0 min 0 min 0 W/m 3,2 km/h (1 Bft) 97,87 %
04.12.2018 22:02 2,3 C 0,0 C 0,0 C 93 % 1024,4 hPa 0,0 l/m 0 min 0 min 0 W/m 0,0 km/h (0 Bft) 97,87 %
04.12.2018 22:04 2,3 C 0,0 C 0,0 C 93 % 1024,3 hPa 0,0 l/m 0 min 0 min 0 W/m 0,0 km/h (0 Bft) 100,00 %
04.12.2018 22:06 2,3 C 0,0 C 0,0 C 93 % 1024,4 hPa 0,0 l/m 0 min 0 min 0 W/m 0,0 km/h (0 Bft) 97,87 %
04.12.2018 22:08 2,2 C 0,0 C 0,0 C 93 % 1024,4 hPa 0,0 l/m 0 min 0 min 0 W/m 0,0 km/h (0 Bft) 100,00 %
04.12.2018 22:10 2,2 C 0,0 C 0,0 C 93 % 1024,4 hPa 0,0 l/m 0 min 0 min 0 W/m 0,0 km/h (0 Bft) 100,00 %
04.12.2018 22:12 2,2 C 0,0 C 0,0 C 93 % 1024,4 hPa 0,0 l/m 0 min 0 min 0 W/m 0,0 km/h (0 Bft) 100,00 %
04.12.2018 22:14 2,1 C 0,0 C 0,0 C 93 % 1024,4 hPa 0,0 l/m 0 min 0 min 0 W/m 0,0 km/h (0 Bft) 97,87 %
04.12.2018 22:16 2,1 C 0,6 C 0,0 C 93 % 1024,3 hPa 0,0 l/m 0 min 0 min 0 W/m 3,2 km/h (1 Bft) 82,98 %
04.12.2018 22:18 2,1 C 0,6 C 0,0 C 93 % 1024,4 hPa 0,0 l/m 0 min 0 min 0 W/m 3,2 km/h (1 Bft) 95,74 %
04.12.2018 22:20 2,0 C 0,6 C 0,0 C 93 % 1024,4 hPa 0,0 l/m 0 min 0 min 0 W/m 0,0 km/h (0 Bft) 97,87 %
04.12.2018 22:22 1,9 C 0,0 C 0,0 C 93 % 1024,4 hPa 0,0 l/m 0 min 0 min 0 W/m 0,0 km/h (0 Bft) 95,65 %
04.12.2018 22:24 1,9 C 0,6 C 0,0 C 93 % 1024,5 hPa 0,0 l/m 0 min 0 min 0 W/m 0,0 km/h (0 Bft) 52,38 %
04.12.2018 22:26 1,9 C 0,6 C 0,0 C 93 % 1024,5 hPa 0,0 l/m 0 min 0 min 0 W/m 3,2 km/h (1 Bft) 97,87 %
04.12.2018 22:28 1,8 C 1,1 C 0,0 C 93 % 1024,4 hPa 0,0 l/m 0 min 0 min 0 W/m 6,4 km/h (2 Bft) 97,87 %
04.12.2018 22:30 1,8 C 1,1 C 0,0 C 93 % 1024,4 hPa 0,0 l/m 0 min 0 min 0 W/m 3,2 km/h (1 Bft) 97,87 %
04.12.2018 22:32 1,8 C 1,1 C 0,6 C 93 % 1024,5 hPa 0,0 l/m 0 min 0 min 0 W/m 6,4 km/h (2 Bft) 97,92 %
04.12.2018 22:34 1,8 C 1,1 C 0,6 C 93 % 1024,4 hPa 0,0 l/m 0 min 0 min 0 W/m 3,2 km/h (1 Bft) 95,65 %
04.12.2018 22:36 1,8 C 1,1 C 0,6 C 93 % 1024,5 hPa 0,0 l/m 0 min 0 min 0 W/m 0,0 km/h (0 Bft) 95,74 %
04.12.2018 22:38 1,8 C 1,1 C 0,6 C 93 % 1024,5 hPa 0,0 l/m 0 min 0 min 0 W/m 0,0 km/h (0 Bft) 97,87 %
04.12.2018 22:40 1,7 C 0,6 C 0,6 C 93 % 1024,5 hPa 0,0 l/m 0 min 0 min 0 W/m 0,0 km/h (0 Bft) 97,87 %
04.12.2018 22:42 1,7 C 0,6 C 0,6 C 93 % 1024,4 hPa 0,0 l/m 0 min 0 min 0 W/m 0,0 km/h (0 Bft) 97,87 %
04.12.2018 22:44 1,7 C 1,1 C 0,6 C 93 % 1024,5 hPa 0,0 l/m 0 min 0 min 0 W/m 0,0 km/h (0 Bft) 97,83 %
04.12.2018 22:46 1,7 C 1,1 C 0,6 C 93 % 1024,4 hPa 0,0 l/m 0 min 0 min 0 W/m 0,0 km/h (0 Bft) 97,92 %
04.12.2018 22:48 1,7 C 1,1 C 0,6 C 93 % 1024,4 hPa 0,0 l/m 0 min 0 min 0 W/m 0,0 km/h (0 Bft) 97,87 %
04.12.2018 22:50 1,7 C 0,6 C 0,6 C 94 % 1024,4 hPa 0,0 l/m 0 min 0 min 0 W/m 0,0 km/h (0 Bft) 95,74 %
04.12.2018 22:52 1,7 C 0,6 C 0,6 C 94 % 1024,4 hPa 0,0 l/m 0 min 0 min 0 W/m 0,0 km/h (0 Bft) 93,62 %
04.12.2018 22:54 1,7 C 0,6 C 0,6 C 94 % 1024,5 hPa 0,0 l/m 0 min 0 min 0 W/m 0,0 km/h (0 Bft) 97,87 %
04.12.2018 22:56 1,7 C 1,1 C 0,6 C 94 % 1024,5 hPa 0,0 l/m 0 min 0 min 0 W/m 0,0 km/h (0 Bft) 97,87 %
04.12.2018 22:58 1,7 C 1,1 C 0,6 C 94 % 1024,5 hPa 0,0 l/m 0 min 0 min 0 W/m 3,2 km/h (1 Bft) 95,65 %
04.12.2018 23:00 1,7 C 1,1 C 0,6 C 94 % 1024,6 hPa 0,0 l/m 0 min 0 min 0 W/m 3,2 km/h (1 Bft) 93,62 %
04.12.2018 23:02 1,7 C 1,7 C 0,6 C 94 % 1024,5 hPa 0,0 l/m 0 min 0 min 0 W/m 6,4 km/h (2 Bft) 93,62 %
04.12.2018 23:04 1,7 C 1,7 C 0,6 C 94 % 1024,5 hPa 0,0 l/m 0 min 0 min 0 W/m 3,2 km/h (1 Bft) 95,83 %
04.12.2018 23:06 1,7 C 1,7 C 1,1 C 94 % 1024,5 hPa 0,0 l/m 0 min 0 min 0 W/m 3,2 km/h (1 Bft) 97,83 %
04.12.2018 23:08 1,8 C 2,2 C 1,1 C 94 % 1024,5 hPa 0,0 l/m 0 min 0 min 0 W/m 6,4 km/h (2 Bft) 97,87 %
04.12.2018 23:10 1,8 C 2,2 C 1,1 C 94 % 1024,5 hPa 0,0 l/m 0 min 0 min 0 W/m 6,4 km/h (2 Bft) 100,00 %
04.12.2018 23:12 1,9 C 2,2 C 1,1 C 94 % 1024,5 hPa 0,0 l/m 0 min 0 min 0 W/m 3,2 km/h (1 Bft) 97,87 %
04.12.2018 23:14 1,9 C 2,2 C 1,1 C 94 % 1024,5 hPa 0,0 l/m 0 min 0 min 0 W/m 0,0 km/h (0 Bft) 97,87 %
04.12.2018 23:16 1,9 C 1,7 C 1,1 C 94 % 1024,5 hPa 0,0 l/m 0 min 0 min 0 W/m 0,0 km/h (0 Bft) 97,83 %
04.12.2018 23:18 1,9 C 1,7 C 1,1 C 94 % 1024,5 hPa 0,0 l/m 0 min 0 min 0 W/m 0,0 km/h (0 Bft) 95,74 %
04.12.2018 23:20 1,9 C 1,7 C 0,6 C 94 % 1024,5 hPa 0,0 l/m 0 min 0 min 0 W/m 3,2 km/h (1 Bft) 97,87 %
04.12.2018 23:22 1,9 C 1,1 C 0,6 C 95 % 1024,4 hPa 0,0 l/m 0 min 0 min 0 W/m 0,0 km/h (0 Bft) 95,74 %
04.12.2018 23:24 2,0 C 1,1 C 0,6 C 95 % 1024,4 hPa 0,0 l/m 0 min 0 min 0 W/m 0,0 km/h (0 Bft) 97,87 %
04.12.2018 23:26 2,0 C 1,1 C 0,6 C 95 % 1024,4 hPa 0,0 l/m 0 min 0 min 0 W/m 3,2 km/h (1 Bft) 97,87 %
04.12.2018 23:28 2,0 C 1,1 C 0,6 C 95 % 1024,4 hPa 0,0 l/m 0 min 0 min 0 W/m 0,0 km/h (0 Bft) 97,83 %
04.12.2018 23:30 2,0 C 1,1 C 0,6 C 95 % 1024,4 hPa 0,0 l/m 0 min 0 min 0 W/m 0,0 km/h (0 Bft) 97,87 %
04.12.2018 23:32 2,0 C 1,1 C 0,6 C 95 % 1024,4 hPa 0,0 l/m 0 min 0 min 0 W/m 0,0 km/h (0 Bft) 97,87 %
04.12.2018 23:34 2,0 C 1,1 C 0,6 C 95 % 1024,4 hPa 0,0 l/m 0 min 0 min 0 W/m 3,2 km/h (1 Bft) 97,87 %
04.12.2018 23:36 2,0 C 1,1 C 0,6 C 95 % 1024,4 hPa 0,0 l/m 0 min 0 min 0 W/m 6,4 km/h (2 Bft) 97,87 %
04.12.2018 23:38 2,0 C 1,7 C 1,1 C 95 % 1024,4 hPa 0,0 l/m 0 min 0 min 0 W/m 9,7 km/h (2 Bft) 100,00 %
04.12.2018 23:40 2,0 C 1,7 C 1,1 C 95 % 1024,4 hPa 0,0 l/m 0 min 0 min 0 W/m 3,2 km/h (1 Bft) 100,00 %
04.12.2018 23:42 2,0 C 1,7 C 1,1 C 95 % 1024,5 hPa 0,0 l/m 0 min 0 min 0 W/m 3,2 km/h (1 Bft) 95,74 %
04.12.2018 23:44 2,1 C 1,7 C 0,6 C 95 % 1024,4 hPa 0,0 l/m 0 min 0 min 0 W/m 0,0 km/h (0 Bft) 97,87 %
04.12.2018 23:46 2,1 C 1,7 C 0,6 C 95 % 1024,5 hPa 0,0 l/m 0 min 0 min 0 W/m 3,2 km/h (1 Bft) 100,00 %
04.12.2018 23:48 2,1 C 1,7 C 0,6 C 95 % 1024,5 hPa 0,0 l/m 0 min 0 min 0 W/m 0,0 km/h (0 Bft) 100,00 %
04.12.2018 23:50 2,1 C 1,7 C 0,6 C 95 % 1024,4 hPa 0,0 l/m 0 min 0 min 0 W/m 3,2 km/h (1 Bft) 100,00 %
04.12.2018 23:52 2,1 C 1,7 C 1,1 C 95 % 1024,4 hPa 0,0 l/m 0 min 0 min 0 W/m 3,2 km/h (1 Bft) 97,83 %
04.12.2018 23:54 2,1 C 1,7 C 1,1 C 95 % 1024,5 hPa 0,0 l/m 0 min 0 min 0 W/m 3,2 km/h (1 Bft) 97,87 %
04.12.2018 23:56 2,1 C 1,7 C 1,1 C 95 % 1024,4 hPa 0,0 l/m 0 min 0 min 0 W/m 0,0 km/h (0 Bft) 97,87 %
04.12.2018 23:58 2,1 C 2,2 C 1,1 C 95 % 1024,4 hPa 0,0 l/m 0 min 0 min 0 W/m 3,2 km/h (1 Bft) 100,00 %
_ Min-Zeit 22:40 22:02 22:02 13:20 00:00 - - - - 05:42 00:02
Minimum _ 1,7 C 0,0 C 0,0 C 76 % 1002,8 hPa - - - - 0,0 km/h (0 Bft) 16,67 %
_ Max-Zeit 13:10 12:28 12:18 00:00 23:00 00:04 12:08 06:56 12:34 00:32 00:10
Maximum _ 10,7 C 18,3 C 13,9 C 96 % 1024,6 hPa 0,2 l/m 4 min 2 min 323 W/m 38,6 km/h
N-NW (5 Bft)
100,00 %
Durchschnitt _ 6,5 C 6,6 C 4,9 C 91 % 1017,1 hPa #0,2 l/m #4:05 h #6 min. 134 W/m 6,6 km/h (2 Bft) 97,11 %
© 2018 W. Hausmann